Time,TemperatureF,DewpointF,PressureIn,WindDirection,WindDirectionDegrees,WindSpeedMPH,WindSpeedGustMPH,Humidity,HourlyPrecipIn,Conditions,Clouds,dailyrainin,SoftwareType,DateUTC
2013-07-20 00:00:00,84.6,73.2,29.86,WSW,254,6.0,8.0,61,0.00,,,0.00,meteohub,2013-07-20 04:00:00,
2013-07-20 00:01:00,84.6,73.0,29.86,WSW,254,4.0,8.0,61,0.00,,,0.00,meteohub,2013-07-20 04:01:00,
2013-07-20 00:02:00,84.6,73.0,29.86,SSW,209,5.0,8.0,61,0.00,,,0.00,meteohub,2013-07-20 04:02:00,
2013-07-20 00:06:00,84.4,73.4,29.86,SW,232,3.0,8.0,62,0.00,,,0.00,meteohub,2013-07-20 04:06:00,
2013-07-20 00:07:00,84.4,73.4,29.86,SW,232,3.0,8.0,62,0.00,,,0.00,meteohub,2013-07-20 04:07:00,
2013-07-20 00:08:00,84.4,73.4,29.86,WSW,254,3.0,8.0,62,0.00,,,0.00,meteohub,2013-07-20 04:08:00,
2013-07-20 00:11:00,84.2,73.2,29.86,WSW,254,4.0,6.0,62,0.00,,,0.00,meteohub,2013-07-20 04:11:00,
2013-07-20 00:12:00,84.2,73.2,29.86,West,276,4.0,6.0,62,0.00,,,0.00,meteohub,2013-07-20 04:12:00,
2013-07-20 00:13:00,84.2,72.7,29.86,WSW,254,5.0,6.0,61,0.00,,,0.00,meteohub,2013-07-20 04:13:00,
2013-07-20 00:16:00,84.4,72.0,29.86,SW,232,5.0,6.0,59,0.00,,,0.00,meteohub,2013-07-20 04:16:00,
2013-07-20 00:17:00,84.4,72.0,29.86,SW,232,4.0,6.0,59,0.00,,,0.00,meteohub,2013-07-20 04:17:00,
2013-07-20 00:18:00,84.4,72.0,29.86,SW,232,4.0,6.0,59,0.00,,,0.00,meteohub,2013-07-20 04:18:00,
2013-07-20 00:19:00,84.4,72.0,29.86,SW,232,4.0,6.0,59,0.00,,,0.00,meteohub,2013-07-20 04:19:00,
2013-07-20 00:22:00,84.2,72.3,29.86,WSW,254,3.0,6.0,60,0.00,,,0.00,meteohub,2013-07-20 04:22:00,
2013-07-20 00:23:00,84.2,72.9,29.83,SSW,209,3.0,6.0,61,0.00,,,0.00,meteohub,2013-07-20 04:23:00,
2013-07-20 00:24:00,84.2,72.9,29.83,WSW,254,4.0,6.0,61,0.00,,,0.00,meteohub,2013-07-20 04:24:00,
2013-07-20 00:27:00,84.0,73.0,29.83,SSW,209,3.0,6.0,62,0.00,,,0.00,meteohub,2013-07-20 04:27:00,
2013-07-20 00:28:00,84.0,73.0,29.83,SW,232,6.0,6.0,62,0.00,,,0.00,meteohub,2013-07-20 04:28:00,
2013-07-20 00:29:00,84.0,73.0,29.83,SSW,209,6.0,6.0,62,0.00,,,0.00,meteohub,2013-07-20 04:29:00,
2013-07-20 00:33:00,83.8,73.2,29.83,SSW,209,4.0,6.0,63,0.00,,,0.00,meteohub,2013-07-20 04:33:00,
2013-07-20 00:34:00,83.8,73.2,29.83,South,186,5.0,6.0,63,0.00,,,0.00,meteohub,2013-07-20 04:34:00,
2013-07-20 00:39:00,83.8,72.9,29.83,SW,232,5.0,6.0,62,0.00,,,0.00,meteohub,2013-07-20 04:39:00,
2013-07-20 00:40:00,83.7,72.1,29.83,SSW,209,3.0,6.0,61,0.00,,,0.00,meteohub,2013-07-20 04:40:00,
2013-07-20 00:44:00,83.8,72.5,29.83,SSW,209,2.0,6.0,61,0.00,,,0.00,meteohub,2013-07-20 04:44:00,
2013-07-20 00:45:00,83.8,72.5,29.83,SSW,209,2.0,6.0,61,0.00,,,0.00,meteohub,2013-07-20 04:45:00,
2013-07-20 00:49:00,83.7,73.8,29.83,SSW,209,5.0,6.0,64,0.00,,,0.00,meteohub,2013-07-20 04:49:00,
2013-07-20 00:50:00,83.7,73.2,29.83,SW,232,4.0,6.0,63,0.00,,,0.00,meteohub,2013-07-20 04:50:00,
2013-07-20 00:54:00,83.5,73.6,29.83,WSW,254,3.0,6.0,64,0.00,,,0.00,meteohub,2013-07-20 04:54:00,
2013-07-20 00:55:00,83.5,73.6,29.83,SW,232,6.0,6.0,64,0.00,,,0.00,meteohub,2013-07-20 04:55:00,
2013-07-20 00:56:00,83.5,73.6,29.83,WSW,254,8.0,8.0,64,0.00,,,0.00,meteohub,2013-07-20 04:56:00,
2013-07-20 01:00:00,83.5,73.4,29.83,West,276,4.0,6.0,64,0.00,,,0.00,meteohub,2013-07-20 05:00:00,
2013-07-20 01:01:00,83.5,73.4,29.83,SSW,209,6.0,8.0,64,0.00,,,0.00,meteohub,2013-07-20 05:01:00,
2013-07-20 01:05:00,83.5,73.4,29.83,SSW,209,4.0,8.0,64,0.00,,,0.00,meteohub,2013-07-20 05:05:00,
2013-07-20 01:06:00,83.5,73.4,29.83,SSW,209,7.0,8.0,64,0.00,,,0.00,meteohub,2013-07-20 05:06:00,
2013-07-20 01:07:00,83.5,73.4,29.83,SW,232,6.0,8.0,64,0.00,,,0.00,meteohub,2013-07-20 05:07:00,
2013-07-20 01:10:00,83.5,73.4,29.83,SW,232,6.0,8.0,64,0.00,,,0.00,meteohub,2013-07-20 05:10:00,
2013-07-20 01:11:00,83.5,73.4,29.83,SE,142,6.0,8.0,64,0.00,,,0.00,meteohub,2013-07-20 05:11:00,
2013-07-20 01:12:00,83.5,73.4,29.83,SSW,209,4.0,8.0,64,0.00,,,0.00,meteohub,2013-07-20 05:12:00,
2013-07-20 01:15:00,83.5,73.4,29.83,SW,232,4.0,8.0,64,0.00,,,0.00,meteohub,2013-07-20 05:15:00,
2013-07-20 01:16:00,83.3,73.8,29.83,SSW,209,4.0,8.0,65,0.00,,,0.00,meteohub,2013-07-20 05:16:00,
2013-07-20 01:17:00,83.3,73.8,29.83,SSW,209,4.0,8.0,65,0.00,,,0.00,meteohub,2013-07-20 05:17:00,
2013-07-20 01:21:00,83.5,74.1,29.83,WSW,254,5.0,7.0,66,0.00,,,0.00,meteohub,2013-07-20 05:21:00,
2013-07-20 01:22:00,83.5,74.1,29.83,SW,232,6.0,7.0,66,0.00,,,0.00,meteohub,2013-07-20 05:22:00,
2013-07-20 01:26:00,83.3,73.9,29.86,SW,232,6.0,6.0,66,0.00,,,0.00,meteohub,2013-07-20 05:26:00,
2013-07-20 01:27:00,83.3,73.9,29.86,SSW,209,4.0,6.0,66,0.00,,,0.00,meteohub,2013-07-20 05:27:00,
2013-07-20 01:32:00,83.3,73.6,29.86,SW,232,2.0,8.0,65,0.00,,,0.00,meteohub,2013-07-20 05:32:00,
2013-07-20 01:33:00,83.5,73.8,29.86,SSW,209,7.0,8.0,65,0.00,,,0.00,meteohub,2013-07-20 05:33:00,
2013-07-20 01:37:00,83.3,73.8,29.86,SSW,209,7.0,9.0,65,0.00,,,0.00,meteohub,2013-07-20 05:37:00,
2013-07-20 01:38:00,83.3,74.1,29.86,WSW,254,2.0,9.0,66,0.00,,,0.00,meteohub,2013-07-20 05:38:00,
2013-07-20 01:42:00,83.3,74.5,29.86,SSW,209,6.0,9.0,67,0.00,,,0.00,meteohub,2013-07-20 05:42:00,
2013-07-20 01:43:00,83.3,74.5,29.86,SSW,209,5.0,9.0,67,0.00,,,0.00,meteohub,2013-07-20 05:43:00,
2013-07-20 01:48:00,83.1,74.3,29.86,WSW,254,4.0,9.0,67,0.00,,,0.00,meteohub,2013-07-20 05:48:00,
2013-07-20 01:49:00,83.1,74.3,29.86,SW,232,6.0,9.0,67,0.00,,,0.00,meteohub,2013-07-20 05:49:00,
2013-07-20 01:53:00,83.1,73.8,29.86,WSW,254,3.0,9.0,66,0.00,,,0.00,meteohub,2013-07-20 05:53:00,
2013-07-20 01:54:00,83.1,73.8,29.86,WSW,254,4.0,9.0,66,0.00,,,0.00,meteohub,2013-07-20 05:54:00,
2013-07-20 01:56:00,83.1,74.3,29.86,SW,232,4.0,7.0,67,0.00,,,0.00,meteohub,2013-07-20 05:56:00,
2013-07-20 01:59:00,82.9,74.1,29.86,WNW,299,6.0,7.0,67,0.00,,,0.00,meteohub,2013-07-20 05:59:00,
2013-07-20 02:00:00,82.9,74.1,29.86,SSW,209,6.0,7.0,67,0.00,,,0.00,meteohub,2013-07-20 06:00:00,
2013-07-20 02:01:00,82.9,73.8,29.86,WSW,254,6.0,9.0,66,0.00,,,0.00,meteohub,2013-07-20 06:01:00,
2013-07-20 02:04:00,83.1,73.9,29.86,SSW,209,1.0,9.0,66,0.00,,,0.00,meteohub,2013-07-20 06:04:00,
2013-07-20 02:05:00,83.1,73.9,29.86,SSW,209,5.0,9.0,66,0.00,,,0.00,meteohub,2013-07-20 06:05:00,
2013-07-20 02:06:00,83.1,73.9,29.86,SW,232,5.0,9.0,66,0.00,,,0.00,meteohub,2013-07-20 06:06:00,
2013-07-20 02:09:00,82.9,73.8,29.86,SW,232,3.0,9.0,66,0.00,,,0.00,meteohub,2013-07-20 06:09:00,
2013-07-20 02:10:00,82.9,74.3,29.86,WSW,254,5.0,9.0,67,0.00,,,0.00,meteohub,2013-07-20 06:10:00,
2013-07-20 02:12:00,82.8,74.1,29.86,WSW,254,3.0,9.0,67,0.00,,,0.00,meteohub,2013-07-20 06:12:00,
2013-07-20 02:15:00,82.8,74.1,29.86,SW,232,3.0,8.0,67,0.00,,,0.00,meteohub,2013-07-20 06:15:00,
2013-07-20 02:16:00,82.8,74.1,29.86,SSW,209,4.0,8.0,67,0.00,,,0.00,meteohub,2013-07-20 06:16:00,
2013-07-20 02:17:00,82.8,74.5,29.86,South,186,4.0,8.0,68,0.00,,,0.00,meteohub,2013-07-20 06:17:00,
2013-07-20 02:20:00,82.8,74.3,29.86,SSW,209,4.0,8.0,68,0.00,,,0.00,meteohub,2013-07-20 06:20:00,
2013-07-20 02:22:00,82.8,74.8,29.86,SW,232,4.0,8.0,69,0.00,,,0.00,meteohub,2013-07-20 06:22:00,
2013-07-20 02:25:00,82.6,74.7,29.86,WNW,299,4.0,5.0,69,0.00,,,0.00,meteohub,2013-07-20 06:25:00,
2013-07-20 02:26:00,82.6,74.7,29.86,SSW,209,3.0,5.0,69,0.00,,,0.00,meteohub,2013-07-20 06:26:00,
2013-07-20 02:27:00,82.6,75.0,29.86,SSW,209,3.0,5.0,70,0.00,,,0.00,meteohub,2013-07-20 06:27:00,
2013-07-20 02:31:00,82.4,74.8,29.86,WSW,254,6.0,9.0,70,0.00,,,0.00,meteohub,2013-07-20 06:31:00,
2013-07-20 02:32:00,82.4,74.5,29.86,SW,232,4.0,9.0,69,0.00,,,0.00,meteohub,2013-07-20 06:32:00,
2013-07-20 02:36:00,82.6,74.3,29.86,SW,232,3.0,10.0,68,0.00,,,0.00,meteohub,2013-07-20 06:36:00,
2013-07-20 02:37:00,82.8,74.5,29.86,SSW,209,3.0,10.0,68,0.00,,,0.00,meteohub,2013-07-20 06:37:00,
2013-07-20 02:38:00,82.8,74.5,29.86,SSW,209,3.0,10.0,68,0.00,,,0.00,meteohub,2013-07-20 06:38:00,
2013-07-20 02:41:00,82.6,74.3,29.86,West,276,4.0,10.0,68,0.00,,,0.00,meteohub,2013-07-20 06:41:00,
2013-07-20 02:43:00,82.4,74.7,29.86,SW,232,2.0,10.0,69,0.00,,,0.00,meteohub,2013-07-20 06:43:00,
2013-07-20 02:46:00,82.4,75.0,29.86,SW,232,4.0,6.0,70,0.00,,,0.00,meteohub,2013-07-20 06:46:00,
2013-07-20 02:48:00,82.4,74.8,29.86,West,276,3.0,6.0,70,0.00,,,0.00,meteohub,2013-07-20 06:48:00,
2013-07-20 02:49:00,82.4,75.4,29.86,WSW,254,3.0,6.0,71,0.00,,,0.00,meteohub,2013-07-20 06:49:00,
2013-07-20 02:51:00,82.4,75.4,29.86,West,276,2.0,6.0,71,0.00,,,0.00,meteohub,2013-07-20 06:51:00,
2013-07-20 02:52:00,82.4,75.4,29.86,WSW,254,4.0,6.0,71,0.00,,,0.00,meteohub,2013-07-20 06:52:00,
2013-07-20 02:53:00,82.2,74.8,29.86,WSW,254,4.0,6.0,70,0.00,,,0.00,meteohub,2013-07-20 06:53:00,
2013-07-20 02:54:00,82.2,74.8,29.86,WNW,299,3.0,6.0,70,0.00,,,0.00,meteohub,2013-07-20 06:54:00,
2013-07-20 02:56:00,82.2,75.2,29.86,WSW,254,3.0,6.0,71,0.00,,,0.00,meteohub,2013-07-20 06:56:00,
2013-07-20 02:57:00,82.2,75.2,29.86,WSW,254,4.0,6.0,71,0.00,,,0.00,meteohub,2013-07-20 06:57:00,
2013-07-20 02:58:00,82.2,75.2,29.86,WSW,254,3.0,6.0,71,0.00,,,0.00,meteohub,2013-07-20 06:58:00,
2013-07-20 02:59:00,82.2,75.6,29.86,SW,232,3.0,6.0,72,0.00,,,0.00,meteohub,2013-07-20 06:59:00,
2013-07-20 03:01:00,82.0,75.2,29.86,WSW,254,5.0,6.0,71,0.00,,,0.00,meteohub,2013-07-20 07:01:00,
2013-07-20 03:03:00,82.0,74.7,29.86,SSW,209,5.0,6.0,70,0.00,,,0.00,meteohub,2013-07-20 07:03:00,
2013-07-20 03:04:00,82.2,74.8,29.86,WSW,254,4.0,6.0,70,0.00,,,0.00,meteohub,2013-07-20 07:04:00,
2013-07-20 03:07:00,82.2,74.7,29.86,SSW,209,4.0,6.0,69,0.00,,,0.00,meteohub,2013-07-20 07:07:00,
2013-07-20 03:08:00,82.2,74.8,29.86,SW,232,2.0,6.0,70,0.00,,,0.00,meteohub,2013-07-20 07:08:00,
2013-07-20 03:09:00,82.2,74.8,29.86,WSW,254,4.0,6.0,70,0.00,,,0.00,meteohub,2013-07-20 07:09:00,
2013-07-20 03:10:00,82.0,74.8,29.86,SW,232,4.0,6.0,70,0.00,,,0.00,meteohub,2013-07-20 07:10:00,
2013-07-20 03:12:00,82.0,75.2,29.86,SW,232,0.0,6.0,71,0.00,,,0.00,meteohub,2013-07-20 07:12:00,
2013-07-20 03:17:00,999.9,75.4,29.67,North,-999,-999.0,6.0,72,0.00,,,0.00,meteohub,2013-07-20 07:17:00,
2013-07-20 03:18:00,81.9,75.4,29.87,WSW,254,4.0,6.0,72,0.00,,,0.00,meteohub,2013-07-20 07:18:00,
2013-07-20 03:22:00,81.7,75.2,29.87,SW,232,3.0,6.0,72,0.00,,,0.00,meteohub,2013-07-20 07:22:00,
2013-07-20 03:23:00,81.7,75.2,29.87,WNW,299,3.0,6.0,72,0.00,,,0.00,meteohub,2013-07-20 07:23:00,
2013-07-20 03:27:00,81.5,75.0,29.87,SW,232,4.0,7.0,72,0.00,,,0.00,meteohub,2013-07-20 07:27:00,
2013-07-20 03:28:00,81.5,75.4,29.87,WSW,254,7.0,7.0,73,0.00,,,0.00,meteohub,2013-07-20 07:28:00,
2013-07-20 03:29:00,81.5,75.4,29.87,WSW,254,6.0,7.0,73,0.00,,,0.00,meteohub,2013-07-20 07:29:00,
2013-07-20 03:32:00,81.3,74.8,29.87,SSW,209,5.0,10.0,72,0.00,,,0.00,meteohub,2013-07-20 07:32:00,
2013-07-20 03:33:00,81.3,74.8,29.87,SSW,209,5.0,10.0,72,0.00,,,0.00,meteohub,2013-07-20 07:33:00,
2013-07-20 03:34:00,81.3,75.2,29.87,SSW,209,4.0,10.0,73,0.00,,,0.00,meteohub,2013-07-20 07:34:00,
2013-07-20 03:38:00,81.5,74.8,29.83,SW,232,6.0,10.0,71,0.00,,,0.00,meteohub,2013-07-20 07:38:00,
2013-07-20 03:39:00,81.3,74.8,29.84,WSW,254,6.0,10.0,71,0.00,,,0.00,meteohub,2013-07-20 07:39:00,
2013-07-20 03:43:00,81.3,74.8,29.84,SW,232,3.0,10.0,71,0.00,,,0.00,meteohub,2013-07-20 07:43:00,
2013-07-20 03:44:00,81.1,75.0,29.84,WSW,254,6.0,10.0,72,0.00,,,0.00,meteohub,2013-07-20 07:44:00,
2013-07-20 03:45:00,81.1,75.0,29.84,SSW,209,4.0,10.0,72,0.00,,,0.00,meteohub,2013-07-20 07:45:00,
2013-07-20 03:48:00,81.0,74.8,29.84,SW,232,4.0,8.0,72,0.00,,,0.00,meteohub,2013-07-20 07:48:00,
2013-07-20 03:49:00,80.8,74.7,29.84,SW,232,9.0,9.0,72,0.00,,,0.00,meteohub,2013-07-20 07:49:00,
2013-07-20 03:50:00,80.8,74.7,29.84,SW,232,6.0,8.0,72,0.00,,,0.00,meteohub,2013-07-20 07:50:00,
2013-07-20 03:53:00,80.6,74.5,29.84,SW,232,7.0,9.0,72,0.00,,,0.00,meteohub,2013-07-20 07:53:00,
2013-07-20 03:54:00,80.6,74.5,29.84,WSW,254,6.0,9.0,72,0.00,,,0.00,meteohub,2013-07-20 07:54:00,
2013-07-20 03:55:00,80.6,74.5,29.84,WSW,254,6.0,9.0,72,0.00,,,0.00,meteohub,2013-07-20 07:55:00,
2013-07-20 03:58:00,80.4,74.3,29.84,SSW,209,5.0,10.0,72,0.00,,,0.00,meteohub,2013-07-20 07:58:00,
2013-07-20 04:00:00,80.4,74.8,29.84,SSW,209,6.0,10.0,73,0.00,,,0.00,meteohub,2013-07-20 08:00:00,
2013-07-20 04:03:00,80.2,74.7,29.84,SSW,209,8.0,11.0,73,0.00,,,0.00,meteohub,2013-07-20 08:03:00,
2013-07-20 04:05:00,80.2,74.7,29.84,SSW,209,4.0,11.0,73,0.00,,,0.00,meteohub,2013-07-20 08:05:00,
2013-07-20 04:06:00,80.2,74.7,29.84,SW,232,5.0,11.0,73,0.00,,,0.00,meteohub,2013-07-20 08:06:00,
2013-07-20 04:07:00,80.2,75.0,29.84,WSW,254,4.0,11.0,74,0.00,,,0.00,meteohub,2013-07-20 08:07:00,
2013-07-20 04:08:00,80.2,75.0,29.84,SSW,209,6.0,11.0,74,0.00,,,0.00,meteohub,2013-07-20 08:08:00,
2013-07-20 04:10:00,80.1,74.8,29.84,WSW,254,6.0,11.0,74,0.00,,,0.00,meteohub,2013-07-20 08:10:00,
2013-07-20 04:11:00,80.1,74.8,29.84,SSW,209,4.0,11.0,74,0.00,,,0.00,meteohub,2013-07-20 08:11:00,
2013-07-20 04:12:00,80.1,74.8,29.84,WSW,254,8.0,11.0,74,0.00,,,0.00,meteohub,2013-07-20 08:12:00,
2013-07-20 04:13:00,80.1,75.2,29.84,SSW,209,3.0,11.0,75,0.00,,,0.00,meteohub,2013-07-20 08:13:00,
2013-07-20 04:15:00,79.9,75.0,29.84,WSW,254,3.0,9.0,75,0.00,,,0.00,meteohub,2013-07-20 08:15:00,
2013-07-20 04:16:00,79.9,75.0,29.84,SSW,209,6.0,9.0,75,0.00,,,0.00,meteohub,2013-07-20 08:16:00,
2013-07-20 04:17:00,79.9,75.0,29.84,SW,232,6.0,9.0,75,0.00,,,0.00,meteohub,2013-07-20 08:17:00,
2013-07-20 04:18:00,79.9,75.0,29.84,SW,232,4.0,9.0,75,0.00,,,0.00,meteohub,2013-07-20 08:18:00,
2013-07-20 04:19:00,79.9,75.0,29.84,WSW,254,4.0,9.0,75,0.00,,,0.00,meteohub,2013-07-20 08:19:00,
2013-07-20 04:21:00,79.9,75.0,29.84,SW,232,3.0,9.0,75,0.00,,,0.00,meteohub,2013-07-20 08:21:00,
2013-07-20 04:22:00,79.9,74.7,29.84,WSW,254,3.0,9.0,74,0.00,,,0.00,meteohub,2013-07-20 08:22:00,
2013-07-20 04:23:00,79.9,74.7,29.84,SW,232,5.0,9.0,74,0.00,,,0.00,meteohub,2013-07-20 08:23:00,
2013-07-20 04:25:00,79.9,74.8,29.84,WSW,254,7.0,8.0,74,0.00,,,0.00,meteohub,2013-07-20 08:25:00,
2013-07-20 04:27:00,79.9,75.2,29.84,SW,232,3.0,8.0,75,0.00,,,0.00,meteohub,2013-07-20 08:27:00,
2013-07-20 04:28:00,79.9,75.0,29.84,SW,232,3.0,8.0,75,0.00,,,0.00,meteohub,2013-07-20 08:28:00,
2013-07-20 04:29:00,79.9,75.0,29.84,WSW,254,2.0,8.0,75,0.00,,,0.00,meteohub,2013-07-20 08:29:00,
2013-07-20 04:32:00,79.7,74.8,29.84,WSW,254,4.0,8.0,75,0.00,,,0.00,meteohub,2013-07-20 08:32:00,
2013-07-20 04:33:00,79.7,74.8,29.84,SW,232,2.0,8.0,75,0.00,,,0.00,meteohub,2013-07-20 08:33:00,
2013-07-20 04:34:00,79.7,74.8,29.84,WSW,254,4.0,8.0,75,0.00,,,0.00,meteohub,2013-07-20 08:34:00,
2013-07-20 04:38:00,79.5,74.7,29.84,SSW,209,3.0,7.0,75,0.00,,,0.00,meteohub,2013-07-20 08:38:00,
2013-07-20 04:39:00,79.5,75.0,29.84,South,186,4.0,7.0,76,0.00,,,0.00,meteohub,2013-07-20 08:39:00,
2013-07-20 04:43:00,79.3,75.0,29.84,SSW,209,3.0,7.0,76,0.00,,,0.00,meteohub,2013-07-20 08:43:00,
2013-07-20 04:44:00,79.3,75.0,29.84,SSW,209,3.0,7.0,76,0.00,,,0.00,meteohub,2013-07-20 08:44:00,
2013-07-20 04:46:00,79.3,75.0,29.84,WSW,254,5.0,6.0,76,0.00,,,0.00,meteohub,2013-07-20 08:46:00,
2013-07-20 04:48:00,79.3,75.4,29.84,WSW,254,2.0,6.0,77,0.00,,,0.00,meteohub,2013-07-20 08:48:00,
2013-07-20 04:49:00,79.3,75.4,29.84,WSW,254,3.0,6.0,77,0.00,,,0.00,meteohub,2013-07-20 08:49:00,
2013-07-20 04:51:00,79.2,75.2,29.84,WNW,299,2.0,6.0,77,0.00,,,0.00,meteohub,2013-07-20 08:51:00,
2013-07-20 04:54:00,79.2,75.2,29.84,WSW,254,3.0,6.0,77,0.00,,,0.00,meteohub,2013-07-20 08:54:00,
2013-07-20 04:55:00,79.2,75.2,29.84,SSW,209,3.0,6.0,77,0.00,,,0.00,meteohub,2013-07-20 08:55:00,
2013-07-20 04:56:00,79.2,75.2,29.84,SSW,209,4.0,6.0,77,0.00,,,0.00,meteohub,2013-07-20 08:56:00,
2013-07-20 04:59:00,79.2,75.2,29.84,SSW,209,3.0,6.0,77,0.00,,,0.00,meteohub,2013-07-20 08:59:00,
2013-07-20 05:01:00,79.2,75.0,29.84,WSW,254,3.0,6.0,77,0.00,,,0.00,meteohub,2013-07-20 09:01:00,
2013-07-20 05:02:00,79.0,75.0,29.84,SW,232,4.0,6.0,77,0.00,,,0.00,meteohub,2013-07-20 09:02:00,
2013-07-20 05:04:00,79.2,75.2,29.84,SSW,209,2.0,6.0,77,0.00,,,0.00,meteohub,2013-07-20 09:04:00,
2013-07-20 05:06:00,79.2,75.2,29.84,SW,232,2.0,6.0,77,0.00,,,0.00,meteohub,2013-07-20 09:06:00,
2013-07-20 05:07:00,79.2,75.0,29.84,WSW,254,2.0,6.0,76,0.00,,,0.00,meteohub,2013-07-20 09:07:00,
2013-07-20 05:09:00,79.2,75.0,29.84,WSW,254,1.0,6.0,76,0.00,,,0.00,meteohub,2013-07-20 09:09:00,
2013-07-20 05:10:00,79.3,75.0,29.84,SW,232,2.0,5.0,76,0.00,,,0.00,meteohub,2013-07-20 09:10:00,
2013-07-20 05:11:00,79.3,75.4,29.84,SW,232,0.0,5.0,77,0.00,,,0.00,meteohub,2013-07-20 09:11:00,
2013-07-20 05:12:00,79.2,74.8,29.84,SSE,164,2.0,5.0,76,0.00,,,0.00,meteohub,2013-07-20 09:12:00,
2013-07-20 05:14:00,79.2,75.0,29.84,SSW,209,3.0,5.0,77,0.00,,,0.00,meteohub,2013-07-20 09:14:00,
2013-07-20 05:16:00,79.2,75.0,29.84,SW,232,4.0,4.0,77,0.00,,,0.00,meteohub,2013-07-20 09:16:00,
2013-07-20 05:17:00,79.0,75.0,29.84,SSW,209,4.0,4.0,77,0.00,,,0.00,meteohub,2013-07-20 09:17:00,
2013-07-20 05:20:00,79.0,75.2,29.84,SSW,209,3.0,5.0,78,0.00,,,0.00,meteohub,2013-07-20 09:20:00,
2013-07-20 05:22:00,79.0,75.2,29.84,South,186,4.0,5.0,78,0.00,,,0.00,meteohub,2013-07-20 09:22:00,
2013-07-20 05:23:00,79.0,75.2,29.84,SSW,209,3.0,5.0,78,0.00,,,0.00,meteohub,2013-07-20 09:23:00,
2013-07-20 05:25:00,78.8,75.0,29.84,WSW,254,3.0,6.0,78,0.00,,,0.00,meteohub,2013-07-20 09:25:00,
2013-07-20 05:27:00,78.8,75.0,29.84,SSW,209,1.0,6.0,78,0.00,,,0.00,meteohub,2013-07-20 09:27:00,
2013-07-20 05:28:00,78.8,75.0,29.84,WSW,254,4.0,6.0,78,0.00,,,0.00,meteohub,2013-07-20 09:28:00,
2013-07-20 05:30:00,78.8,75.0,29.84,SSW,209,4.0,6.0,78,0.00,,,0.00,meteohub,2013-07-20 09:30:00,
2013-07-20 05:32:00,78.8,75.4,29.84,SSW,209,5.0,6.0,79,0.00,,,0.00,meteohub,2013-07-20 09:32:00,
2013-07-20 05:33:00,78.8,75.0,29.84,SW,232,4.0,6.0,78,0.00,,,0.00,meteohub,2013-07-20 09:33:00,
2013-07-20 05:34:00,78.8,74.8,29.84,SW,232,4.0,6.0,78,0.00,,,0.00,meteohub,2013-07-20 09:34:00,
2013-07-20 05:36:00,78.8,74.8,29.84,SSW,209,3.0,5.0,78,0.00,,,0.00,meteohub,2013-07-20 09:36:00,
2013-07-20 05:37:00,78.8,74.8,29.84,SW,232,5.0,5.0,78,0.00,,,0.00,meteohub,2013-07-20 09:37:00,
2013-07-20 05:38:00,78.8,75.2,29.84,WSW,254,2.0,5.0,79,0.00,,,0.00,meteohub,2013-07-20 09:38:00,
2013-07-20 05:39:00,78.8,75.2,29.84,WSW,254,2.0,5.0,79,0.00,,,0.00,meteohub,2013-07-20 09:39:00,
2013-07-20 05:41:00,78.8,75.2,29.84,SSW,209,3.0,6.0,79,0.00,,,0.00,meteohub,2013-07-20 09:41:00,
2013-07-20 05:42:00,78.8,75.2,29.84,SW,232,3.0,6.0,79,0.00,,,0.00,meteohub,2013-07-20 09:42:00,
2013-07-20 05:43:00,78.8,75.2,29.84,SSW,209,5.0,6.0,79,0.00,,,0.00,meteohub,2013-07-20 09:43:00,
2013-07-20 05:44:00,78.8,75.2,29.84,SSW,209,5.0,6.0,79,0.00,,,0.00,meteohub,2013-07-20 09:44:00,
2013-07-20 05:46:00,78.8,75.2,29.84,SSE,164,1.0,6.0,79,0.00,,,0.00,meteohub,2013-07-20 09:46:00,
2013-07-20 05:49:00,78.6,75.4,29.84,SW,232,4.0,6.0,80,0.00,,,0.00,meteohub,2013-07-20 09:49:00,
2013-07-20 05:52:00,78.8,75.2,29.84,SW,232,4.0,6.0,79,0.00,,,0.00,meteohub,2013-07-20 09:52:00,
2013-07-20 05:54:00,78.8,75.2,29.84,WSW,254,3.0,6.0,79,0.00,,,0.00,meteohub,2013-07-20 09:54:00,
2013-07-20 05:55:00,78.8,74.8,29.84,WNW,299,2.0,6.0,78,0.00,,,0.00,meteohub,2013-07-20 09:55:00,
2013-07-20 05:57:00,79.0,75.0,29.84,WSW,254,2.0,6.0,78,0.00,,,0.00,meteohub,2013-07-20 09:57:00,
2013-07-20 06:00:00,78.8,74.8,29.84,SSW,209,2.0,6.0,78,0.00,,,0.00,meteohub,2013-07-20 10:00:00,
2013-07-20 06:01:00,78.8,75.2,29.84,SW,232,4.0,6.0,79,0.00,,,0.00,meteohub,2013-07-20 10:01:00,
2013-07-20 06:02:00,78.8,75.2,29.84,WSW,254,3.0,6.0,79,0.00,,,0.00,meteohub,2013-07-20 10:02:00,
2013-07-20 06:05:00,78.8,75.2,29.84,SSW,209,4.0,6.0,79,0.00,,,0.00,meteohub,2013-07-20 10:05:00,
2013-07-20 06:06:00,78.8,75.2,29.84,SSW,209,5.0,6.0,79,0.00,,,0.00,meteohub,2013-07-20 10:06:00,
2013-07-20 06:10:00,78.8,75.0,29.87,WSW,254,3.0,7.0,79,0.00,,,0.00,meteohub,2013-07-20 10:10:00,
2013-07-20 06:11:00,78.8,75.0,29.87,WSW,254,4.0,7.0,79,0.00,,,0.00,meteohub,2013-07-20 10:11:00,
2013-07-20 06:12:00,78.8,75.0,29.87,WSW,254,4.0,7.0,79,0.00,,,0.00,meteohub,2013-07-20 10:12:00,
2013-07-20 06:16:00,78.8,75.0,29.87,SSW,209,4.0,7.0,79,0.00,,,0.00,meteohub,2013-07-20 10:16:00,
2013-07-20 06:17:00,78.8,75.0,29.87,SSW,209,6.0,7.0,79,0.00,,,0.00,meteohub,2013-07-20 10:17:00,
2013-07-20 06:21:00,78.8,75.0,29.87,SSW,209,3.0,8.0,79,0.00,,,0.00,meteohub,2013-07-20 10:21:00,
2013-07-20 06:22:00,78.8,74.8,29.87,WSW,254,3.0,8.0,79,0.00,,,0.00,meteohub,2013-07-20 10:22:00,
2013-07-20 06:26:00,78.8,74.8,29.87,WNW,299,2.0,8.0,79,0.00,,,0.00,meteohub,2013-07-20 10:26:00,
2013-07-20 06:27:00,78.8,74.8,29.87,SSW,209,4.0,8.0,79,0.00,,,0.00,meteohub,2013-07-20 10:27:00,
2013-07-20 06:28:00,78.8,74.8,29.87,SSW,209,7.0,8.0,79,0.00,,,0.00,meteohub,2013-07-20 10:28:00,
2013-07-20 06:31:00,78.8,74.8,29.87,SW,232,9.0,9.0,79,0.00,,,0.00,meteohub,2013-07-20 10:31:00,
2013-07-20 06:32:00,78.8,74.8,29.87,SSW,209,6.0,8.0,79,0.00,,,0.00,meteohub,2013-07-20 10:32:00,
2013-07-20 06:33:00,78.8,74.8,29.87,SW,232,3.0,8.0,79,0.00,,,0.00,meteohub,2013-07-20 10:33:00,
2013-07-20 06:36:00,79.0,75.0,29.87,SW,232,6.0,9.0,79,0.00,,,0.00,meteohub,2013-07-20 10:36:00,
2013-07-20 06:37:00,79.0,74.8,29.87,SW,232,3.0,9.0,78,0.00,,,0.00,meteohub,2013-07-20 10:37:00,
2013-07-20 06:38:00,79.0,74.8,29.87,SSW,209,3.0,9.0,78,0.00,,,0.00,meteohub,2013-07-20 10:38:00,
2013-07-20 06:42:00,79.2,74.8,29.87,SSW,209,1.0,9.0,78,0.00,,,0.00,meteohub,2013-07-20 10:42:00,
2013-07-20 06:43:00,79.2,74.8,29.87,SW,232,2.0,9.0,78,0.00,,,0.00,meteohub,2013-07-20 10:43:00,
2013-07-20 06:44:00,79.2,74.8,29.87,SW,232,4.0,9.0,78,0.00,,,0.00,meteohub,2013-07-20 10:44:00,
2013-07-20 06:47:00,79.0,75.0,29.87,SSW,209,6.0,9.0,79,0.00,,,0.00,meteohub,2013-07-20 10:47:00,
2013-07-20 06:48:00,79.0,75.0,29.87,SW,232,6.0,9.0,79,0.00,,,0.00,meteohub,2013-07-20 10:48:00,
2013-07-20 06:49:00,79.0,75.0,29.87,SSW,209,3.0,9.0,79,0.00,,,0.00,meteohub,2013-07-20 10:49:00,
2013-07-20 06:53:00,79.0,75.0,29.87,SSW,209,4.0,8.0,79,0.00,,,0.00,meteohub,2013-07-20 10:53:00,
2013-07-20 06:54:00,79.0,75.0,29.87,SSW,209,4.0,8.0,79,0.00,,,0.00,meteohub,2013-07-20 10:54:00,
2013-07-20 06:55:00,79.0,75.0,29.87,SSW,209,5.0,8.0,79,0.00,,,0.00,meteohub,2013-07-20 10:55:00,
2013-07-20 06:58:00,79.0,74.7,29.87,SW,232,3.0,8.0,78,0.00,,,0.00,meteohub,2013-07-20 10:58:00,
2013-07-20 06:59:00,79.0,74.7,29.87,SW,232,4.0,8.0,78,0.00,,,0.00,meteohub,2013-07-20 10:59:00,
2013-07-20 07:00:00,79.2,74.8,29.87,WSW,254,3.0,8.0,78,0.00,,,0.00,meteohub,2013-07-20 11:00:00,
2013-07-20 07:03:00,79.3,75.0,29.87,SW,232,4.0,8.0,78,0.00,,,0.00,meteohub,2013-07-20 11:03:00,
2013-07-20 07:04:00,79.3,75.0,29.87,SSW,209,3.0,8.0,78,0.00,,,0.00,meteohub,2013-07-20 11:04:00,
2013-07-20 07:05:00,79.3,75.0,29.87,SSW,209,4.0,8.0,78,0.00,,,0.00,meteohub,2013-07-20 11:05:00,
2013-07-20 07:09:00,79.2,74.8,29.87,SW,232,3.0,8.0,78,0.00,,,0.00,meteohub,2013-07-20 11:09:00,
2013-07-20 07:11:00,79.2,74.8,29.87,SSW,209,3.0,6.0,78,0.00,,,0.00,meteohub,2013-07-20 11:11:00,
2013-07-20 07:14:00,79.2,74.8,29.87,SSW,209,3.0,6.0,78,0.00,,,0.00,meteohub,2013-07-20 11:14:00,
2013-07-20 07:16:00,79.2,74.8,29.87,SSW,209,4.0,6.0,78,0.00,,,0.00,meteohub,2013-07-20 11:16:00,
2013-07-20 07:17:00,79.2,74.8,29.87,SSW,209,3.0,6.0,78,0.00,,,0.00,meteohub,2013-07-20 11:17:00,
2013-07-20 07:19:00,79.2,74.8,29.87,WSW,254,6.0,6.0,78,0.00,,,0.00,meteohub,2013-07-20 11:19:00,
2013-07-20 07:20:00,79.2,74.8,29.87,WSW,254,4.0,6.0,78,0.00,,,0.00,meteohub,2013-07-20 11:20:00,
2013-07-20 07:21:00,79.3,75.0,29.87,WSW,254,5.0,6.0,78,0.00,,,0.00,meteohub,2013-07-20 11:21:00,
2013-07-20 07:23:00,79.3,75.0,29.84,WSW,254,3.0,6.0,78,0.00,,,0.00,meteohub,2013-07-20 11:23:00,
2013-07-20 07:25:00,79.3,74.8,29.84,SSW,209,6.0,6.0,77,0.00,,,0.00,meteohub,2013-07-20 11:25:00,
2013-07-20 07:26:00,79.3,74.8,29.84,WSW,254,7.0,7.0,77,0.00,,,0.00,meteohub,2013-07-20 11:26:00,
2013-07-20 07:27:00,79.3,74.8,29.84,SSW,209,6.0,6.0,77,0.00,,,0.00,meteohub,2013-07-20 11:27:00,
2013-07-20 07:28:00,79.3,74.8,29.84,SW,232,2.0,6.0,77,0.00,,,0.00,meteohub,2013-07-20 11:28:00,
2013-07-20 07:30:00,79.5,74.7,29.84,WSW,254,5.0,6.0,76,0.00,,,0.00,meteohub,2013-07-20 11:30:00,
2013-07-20 07:31:00,79.5,74.7,29.84,SW,232,6.0,7.0,76,0.00,,,0.00,meteohub,2013-07-20 11:31:00,
2013-07-20 07:32:00,79.5,74.7,29.84,WSW,254,4.0,7.0,76,0.00,,,0.00,meteohub,2013-07-20 11:32:00,
2013-07-20 07:33:00,79.5,74.7,29.84,SSW,209,6.0,7.0,76,0.00,,,0.00,meteohub,2013-07-20 11:33:00,
2013-07-20 07:35:00,79.5,74.7,29.84,SSW,209,4.0,7.0,76,0.00,,,0.00,meteohub,2013-07-20 11:35:00,
2013-07-20 07:36:00,79.5,74.7,29.84,WSW,254,3.0,7.0,76,0.00,,,0.00,meteohub,2013-07-20 11:36:00,
2013-07-20 07:37:00,79.5,74.7,29.84,SSW,209,3.0,7.0,76,0.00,,,0.00,meteohub,2013-07-20 11:37:00,
2013-07-20 07:39:00,79.5,74.7,29.87,South,186,3.0,7.0,76,0.00,,,0.00,meteohub,2013-07-20 11:39:00,
2013-07-20 07:40:00,79.5,74.7,29.87,WSW,254,4.0,7.0,76,0.00,,,0.00,meteohub,2013-07-20 11:40:00,
2013-07-20 07:41:00,79.5,74.8,29.87,South,186,3.0,7.0,76,0.00,,,0.00,meteohub,2013-07-20 11:41:00,
2013-07-20 07:42:00,79.5,74.8,29.87,South,186,3.0,7.0,76,0.00,,,0.00,meteohub,2013-07-20 11:42:00,
2013-07-20 07:43:00,79.5,74.8,29.87,WSW,254,4.0,7.0,76,0.00,,,0.00,meteohub,2013-07-20 11:43:00,
2013-07-20 07:44:00,79.5,74.8,29.87,SW,232,4.0,7.0,76,0.00,,,0.00,meteohub,2013-07-20 11:44:00,
2013-07-20 07:46:00,79.5,74.8,29.87,SSW,209,4.0,6.0,76,0.00,,,0.00,meteohub,2013-07-20 11:46:00,
2013-07-20 07:47:00,79.5,74.8,29.87,SSW,209,4.0,6.0,76,0.00,,,0.00,meteohub,2013-07-20 11:47:00,
2013-07-20 07:48:00,79.5,74.8,29.87,SSW,209,5.0,6.0,76,0.00,,,0.00,meteohub,2013-07-20 11:48:00,
2013-07-20 07:49:00,79.5,74.8,29.87,SSW,209,4.0,6.0,76,0.00,,,0.00,meteohub,2013-07-20 11:49:00,
2013-07-20 07:51:00,79.7,74.8,29.87,SSW,209,2.0,5.0,76,0.00,,,0.00,meteohub,2013-07-20 11:51:00,
2013-07-20 07:52:00,79.7,74.8,29.87,SSW,209,3.0,5.0,76,0.00,,,0.00,meteohub,2013-07-20 11:52:00,
2013-07-20 07:53:00,79.7,75.0,29.87,WSW,254,3.0,5.0,76,0.00,,,0.00,meteohub,2013-07-20 11:53:00,
2013-07-20 07:55:00,79.7,75.0,29.87,SW,232,3.0,5.0,76,0.00,,,0.00,meteohub,2013-07-20 11:55:00,
2013-07-20 07:56:00,79.9,75.0,29.87,SSW,209,3.0,5.0,76,0.00,,,0.00,meteohub,2013-07-20 11:56:00,
2013-07-20 07:57:00,79.9,75.0,29.87,SW,232,2.0,5.0,76,0.00,,,0.00,meteohub,2013-07-20 11:57:00,
2013-07-20 07:59:00,79.7,74.5,29.87,SSW,209,4.0,5.0,75,0.00,,,0.00,meteohub,2013-07-20 11:59:00,
2013-07-20 08:00:00,79.9,74.7,29.87,WSW,254,6.0,6.0,75,0.00,,,0.00,meteohub,2013-07-20 12:00:00,
2013-07-20 08:02:00,79.7,74.5,29.87,SW,232,5.0,5.0,75,0.00,,,0.00,meteohub,2013-07-20 12:02:00,
2013-07-20 08:03:00,79.7,74.5,29.87,WSW,254,3.0,5.0,75,0.00,,,0.00,meteohub,2013-07-20 12:03:00,
2013-07-20 08:04:00,79.7,74.5,29.87,SW,232,4.0,5.0,75,0.00,,,0.00,meteohub,2013-07-20 12:04:00,
2013-07-20 08:05:00,79.7,74.5,29.87,WSW,254,3.0,6.0,75,0.00,,,0.00,meteohub,2013-07-20 12:05:00,
2013-07-20 08:07:00,79.9,74.7,29.87,SW,232,6.0,6.0,75,0.00,,,0.00,meteohub,2013-07-20 12:07:00,
2013-07-20 08:08:00,79.9,74.7,29.87,SW,232,5.0,6.0,75,0.00,,,0.00,meteohub,2013-07-20 12:08:00,
2013-07-20 08:09:00,79.9,74.7,29.87,SSW,209,4.0,6.0,75,0.00,,,0.00,meteohub,2013-07-20 12:09:00,
2013-07-20 08:11:00,80.1,74.8,29.87,WSW,254,3.0,6.0,75,0.00,,,0.00,meteohub,2013-07-20 12:11:00,
2013-07-20 08:12:00,80.1,74.8,29.87,SW,232,3.0,6.0,75,0.00,,,0.00,meteohub,2013-07-20 12:12:00,
2013-07-20 08:13:00,80.1,74.8,29.87,WSW,254,1.0,6.0,75,0.00,,,0.00,meteohub,2013-07-20 12:13:00,
2013-07-20 08:14:00,80.1,74.8,29.87,SSW,209,4.0,6.0,75,0.00,,,0.00,meteohub,2013-07-20 12:14:00,
2013-07-20 08:15:00,80.1,74.8,29.87,SSW,209,3.0,6.0,75,0.00,,,0.00,meteohub,2013-07-20 12:15:00,
2013-07-20 08:16:00,80.1,74.8,29.87,SW,232,4.0,6.0,75,0.00,,,0.00,meteohub,2013-07-20 12:16:00,
2013-07-20 08:17:00,80.1,74.8,29.87,SSW,209,4.0,6.0,75,0.00,,,0.00,meteohub,2013-07-20 12:17:00,
2013-07-20 08:19:00,80.2,75.0,29.87,WSW,254,2.0,6.0,75,0.00,,,0.00,meteohub,2013-07-20 12:19:00,
2013-07-20 08:20:00,80.1,74.5,29.87,WSW,254,3.0,6.0,74,0.00,,,0.00,meteohub,2013-07-20 12:20:00,
2013-07-20 08:21:00,80.2,74.5,29.87,South,186,3.0,6.0,74,0.00,,,0.00,meteohub,2013-07-20 12:21:00,
2013-07-20 08:23:00,80.2,75.0,29.87,SSW,209,5.0,6.0,75,0.00,,,0.00,meteohub,2013-07-20 12:23:00,
2013-07-20 08:24:00,80.2,75.0,29.87,SW,232,5.0,6.0,75,0.00,,,0.00,meteohub,2013-07-20 12:24:00,
2013-07-20 08:25:00,80.2,75.0,29.87,South,186,3.0,5.0,75,0.00,,,0.00,meteohub,2013-07-20 12:25:00,
2013-07-20 08:26:00,80.2,74.7,29.87,SSW,209,2.0,5.0,74,0.00,,,0.00,meteohub,2013-07-20 12:26:00,
2013-07-20 08:28:00,80.4,74.7,29.87,SSW,209,4.0,5.0,74,0.00,,,0.00,meteohub,2013-07-20 12:28:00,
2013-07-20 08:29:00,80.4,74.7,29.87,SSW,209,3.0,5.0,74,0.00,,,0.00,meteohub,2013-07-20 12:29:00,
2013-07-20 08:30:00,80.4,74.7,29.87,SW,232,2.0,5.0,74,0.00,,,0.00,meteohub,2013-07-20 12:30:00,
2013-07-20 08:31:00,80.4,75.0,29.87,SSW,209,3.0,5.0,75,0.00,,,0.00,meteohub,2013-07-20 12:31:00,
2013-07-20 08:32:00,80.4,75.0,29.87,SSW,209,4.0,5.0,75,0.00,,,0.00,meteohub,2013-07-20 12:32:00,
2013-07-20 08:33:00,80.4,75.0,29.87,SSE,164,3.0,5.0,75,0.00,,,0.00,meteohub,2013-07-20 12:33:00,
2013-07-20 08:34:00,80.4,74.7,29.87,SW,232,4.0,5.0,74,0.00,,,0.00,meteohub,2013-07-20 12:34:00,
2013-07-20 08:35:00,80.6,74.8,29.87,WSW,254,4.0,6.0,74,0.00,,,0.00,meteohub,2013-07-20 12:35:00,
2013-07-20 08:37:00,80.6,74.8,29.87,South,186,3.0,6.0,74,0.00,,,0.00,meteohub,2013-07-20 12:37:00,
2013-07-20 08:38:00,80.6,74.8,29.87,SSW,209,2.0,6.0,74,0.00,,,0.00,meteohub,2013-07-20 12:38:00,
2013-07-20 08:39:00,80.8,74.8,29.87,SW,232,2.0,6.0,74,0.00,,,0.00,meteohub,2013-07-20 12:39:00,
2013-07-20 08:41:00,80.8,74.8,29.87,WSW,254,3.0,6.0,74,0.00,,,0.00,meteohub,2013-07-20 12:41:00,
2013-07-20 08:42:00,80.8,75.2,29.87,SW,232,5.0,6.0,75,0.00,,,0.00,meteohub,2013-07-20 12:42:00,
2013-07-20 08:43:00,80.8,75.0,29.87,WSW,254,7.0,7.0,75,0.00,,,0.00,meteohub,2013-07-20 12:43:00,
2013-07-20 08:44:00,80.6,75.0,29.87,SW,232,6.0,6.0,75,0.00,,,0.00,meteohub,2013-07-20 12:44:00,
2013-07-20 08:45:00,80.6,74.8,29.87,WSW,254,5.0,7.0,75,0.00,,,0.00,meteohub,2013-07-20 12:45:00,
2013-07-20 08:47:00,80.6,74.8,29.87,SSW,209,6.0,7.0,75,0.00,,,0.00,meteohub,2013-07-20 12:47:00,
2013-07-20 08:49:00,80.6,74.8,29.87,SSW,209,3.0,7.0,75,0.00,,,0.00,meteohub,2013-07-20 12:49:00,
2013-07-20 08:50:00,80.8,74.8,29.87,WSW,254,6.0,7.0,75,0.00,,,0.00,meteohub,2013-07-20 12:50:00,
2013-07-20 08:52:00,80.8,74.8,29.87,SSE,164,4.0,7.0,75,0.00,,,0.00,meteohub,2013-07-20 12:52:00,
2013-07-20 08:55:00,80.8,74.7,29.87,SSE,164,5.0,7.0,75,0.00,,,0.00,meteohub,2013-07-20 12:55:00,
2013-07-20 08:56:00,80.6,74.7,29.87,SSW,209,5.0,7.0,75,0.00,,,0.00,meteohub,2013-07-20 12:56:00,
2013-07-20 08:58:00,80.8,74.7,29.87,SW,232,5.0,7.0,75,0.00,,,0.00,meteohub,2013-07-20 12:58:00,
2013-07-20 09:01:00,80.8,74.8,29.87,SSW,209,4.0,7.0,75,0.00,,,0.00,meteohub,2013-07-20 13:01:00,
2013-07-20 09:02:00,81.0,74.7,29.87,SSW,209,1.0,7.0,74,0.00,,,0.00,meteohub,2013-07-20 13:02:00,
2013-07-20 09:03:00,81.0,74.7,29.87,WSW,254,4.0,7.0,74,0.00,,,0.00,meteohub,2013-07-20 13:03:00,
2013-07-20 09:06:00,81.0,74.7,29.87,SW,232,8.0,9.0,74,0.00,,,0.00,meteohub,2013-07-20 13:06:00,
2013-07-20 09:07:00,81.0,74.7,29.87,SSW,209,10.0,10.0,74,0.00,,,0.00,meteohub,2013-07-20 13:07:00,
2013-07-20 09:08:00,81.0,74.7,29.87,WSW,254,6.0,9.0,74,0.00,,,0.00,meteohub,2013-07-20 13:08:00,
2013-07-20 09:09:00,81.0,74.7,29.87,SW,232,10.0,10.0,74,0.00,,,0.00,meteohub,2013-07-20 13:09:00,
2013-07-20 09:11:00,81.0,74.7,29.87,SW,232,10.0,10.0,74,0.00,,,0.00,meteohub,2013-07-20 13:11:00,
2013-07-20 09:12:00,81.0,74.7,29.87,SW,232,7.0,10.0,74,0.00,,,0.00,meteohub,2013-07-20 13:12:00,
2013-07-20 09:13:00,80.8,74.5,29.87,SW,232,6.0,10.0,74,0.00,,,0.00,meteohub,2013-07-20 13:13:00,
2013-07-20 09:14:00,80.8,74.5,29.87,SW,232,6.0,10.0,74,0.00,,,0.00,meteohub,2013-07-20 13:14:00,
2013-07-20 09:16:00,80.8,74.1,29.87,SW,232,4.0,11.0,73,0.00,,,0.00,meteohub,2013-07-20 13:16:00,
2013-07-20 09:17:00,81.0,74.7,29.87,SSW,209,6.0,11.0,74,0.00,,,0.00,meteohub,2013-07-20 13:17:00,
2013-07-20 09:18:00,81.0,74.7,29.87,South,186,3.0,11.0,74,0.00,,,0.00,meteohub,2013-07-20 13:18:00,
2013-07-20 09:19:00,81.1,73.6,29.87,SSW,209,4.0,11.0,71,0.00,,,0.00,meteohub,2013-07-20 13:19:00,
2013-07-20 09:20:00,81.1,74.8,29.87,WSW,254,6.0,11.0,74,0.00,,,0.00,meteohub,2013-07-20 13:20:00,
2013-07-20 09:21:00,81.1,74.8,29.87,SW,232,6.0,11.0,74,0.00,,,0.00,meteohub,2013-07-20 13:21:00,
2013-07-20 09:23:00,81.1,74.7,29.87,SSW,209,6.0,11.0,73,0.00,,,0.00,meteohub,2013-07-20 13:23:00,
2013-07-20 09:25:00,81.1,74.7,29.87,SW,232,6.0,11.0,73,0.00,,,0.00,meteohub,2013-07-20 13:25:00,
2013-07-20 09:26:00,81.3,74.7,29.87,SSW,209,5.0,11.0,73,0.00,,,0.00,meteohub,2013-07-20 13:26:00,
2013-07-20 09:28:00,81.3,74.5,29.87,SSW,209,9.0,11.0,73,0.00,,,0.00,meteohub,2013-07-20 13:28:00,
2013-07-20 09:29:00,81.3,74.5,29.87,SSW,209,8.0,11.0,73,0.00,,,0.00,meteohub,2013-07-20 13:29:00,
2013-07-20 09:30:00,81.3,74.5,29.87,WSW,254,4.0,11.0,73,0.00,,,0.00,meteohub,2013-07-20 13:30:00,
2013-07-20 09:31:00,81.3,74.5,29.87,WSW,254,4.0,10.0,73,0.00,,,0.00,meteohub,2013-07-20 13:31:00,
2013-07-20 09:32:00,81.1,74.3,29.87,SSW,209,9.0,10.0,73,0.00,,,0.00,meteohub,2013-07-20 13:32:00,
2013-07-20 09:34:00,81.3,74.3,29.87,SW,232,5.0,10.0,73,0.00,,,0.00,meteohub,2013-07-20 13:34:00,
2013-07-20 09:35:00,81.3,74.3,29.87,SSW,209,6.0,10.0,73,0.00,,,0.00,meteohub,2013-07-20 13:35:00,
2013-07-20 09:36:00,81.3,74.3,29.87,SSW,209,5.0,10.0,73,0.00,,,0.00,meteohub,2013-07-20 13:36:00,
2013-07-20 09:38:00,81.5,74.5,29.87,SSW,209,6.0,10.0,73,0.00,,,0.00,meteohub,2013-07-20 13:38:00,
2013-07-20 09:39:00,81.5,74.5,29.87,SSW,209,6.0,10.0,73,0.00,,,0.00,meteohub,2013-07-20 13:39:00,
2013-07-20 09:40:00,81.5,74.7,29.87,WSW,254,4.0,9.0,73,0.00,,,0.00,meteohub,2013-07-20 13:40:00,
2013-07-20 09:41:00,81.5,74.7,29.87,SSE,164,6.0,9.0,73,0.00,,,0.00,meteohub,2013-07-20 13:41:00,
2013-07-20 09:44:00,81.7,74.5,29.87,SSW,209,4.0,9.0,73,0.00,,,0.00,meteohub,2013-07-20 13:44:00,
2013-07-20 09:45:00,81.7,74.5,29.87,SW,232,3.0,9.0,73,0.00,,,0.00,meteohub,2013-07-20 13:45:00,
2013-07-20 09:46:00,81.9,74.7,29.87,SSW,209,4.0,9.0,73,0.00,,,0.00,meteohub,2013-07-20 13:46:00,
2013-07-20 09:49:00,82.0,74.7,29.86,WSW,254,6.0,9.0,73,0.00,,,0.00,meteohub,2013-07-20 13:49:00,
2013-07-20 09:50:00,82.0,74.7,29.86,WSW,254,5.0,9.0,73,0.00,,,0.00,meteohub,2013-07-20 13:50:00,
2013-07-20 09:51:00,82.0,74.7,29.86,WSW,254,4.0,8.0,73,0.00,,,0.00,meteohub,2013-07-20 13:51:00,
2013-07-20 09:52:00,82.0,74.7,29.86,SSW,209,6.0,8.0,73,0.00,,,0.00,meteohub,2013-07-20 13:52:00,
2013-07-20 09:54:00,82.0,74.7,29.86,SSW,209,4.0,8.0,73,0.00,,,0.00,meteohub,2013-07-20 13:54:00,
2013-07-20 09:55:00,82.0,74.7,29.86,SW,232,6.0,8.0,73,0.00,,,0.00,meteohub,2013-07-20 13:55:00,
2013-07-20 09:56:00,82.0,75.0,29.86,WSW,254,5.0,7.0,74,0.00,,,0.00,meteohub,2013-07-20 13:56:00,
2013-07-20 09:57:00,82.2,75.0,29.86,SSW,209,3.0,7.0,74,0.00,,,0.00,meteohub,2013-07-20 13:57:00,
2013-07-20 10:00:00,82.4,75.0,29.86,WSW,254,3.0,7.0,73,0.00,,,0.00,meteohub,2013-07-20 14:00:00,
2013-07-20 10:01:00,82.4,75.0,29.86,SW,232,5.0,7.0,73,0.00,,,0.00,meteohub,2013-07-20 14:01:00,
2013-07-20 10:02:00,82.6,75.2,29.86,WSW,254,6.0,7.0,73,0.00,,,0.00,meteohub,2013-07-20 14:02:00,
2013-07-20 10:05:00,82.6,74.8,29.86,WSW,254,6.0,7.0,72,0.00,,,0.00,meteohub,2013-07-20 14:05:00,
2013-07-20 10:06:00,82.6,74.8,29.86,SSW,209,6.0,7.0,72,0.00,,,0.00,meteohub,2013-07-20 14:06:00,
2013-07-20 10:08:00,82.6,74.5,29.86,SSW,209,6.0,7.0,71,0.00,,,0.00,meteohub,2013-07-20 14:08:00,
2013-07-20 10:10:00,82.6,74.3,29.86,South,186,8.0,9.0,71,0.00,,,0.00,meteohub,2013-07-20 14:10:00,
2013-07-20 10:11:00,82.8,74.3,29.86,West,276,2.0,9.0,71,0.00,,,0.00,meteohub,2013-07-20 14:11:00,
2013-07-20 10:13:00,82.8,74.3,29.86,WSW,254,4.0,9.0,71,0.00,,,0.00,meteohub,2013-07-20 14:13:00,
2013-07-20 10:15:00,82.8,74.3,29.86,WSW,254,6.0,9.0,71,0.00,,,0.00,meteohub,2013-07-20 14:15:00,
2013-07-20 10:17:00,82.9,74.3,29.86,SSW,209,4.0,9.0,71,0.00,,,0.00,meteohub,2013-07-20 14:17:00,
2013-07-20 10:18:00,82.9,74.5,29.86,SSW,209,3.0,9.0,71,0.00,,,0.00,meteohub,2013-07-20 14:18:00,
2013-07-20 10:19:00,82.9,74.5,29.86,WSW,254,11.0,11.0,71,0.00,,,0.00,meteohub,2013-07-20 14:19:00,
2013-07-20 10:21:00,83.1,74.7,29.86,West,276,3.0,10.0,71,0.00,,,0.00,meteohub,2013-07-20 14:21:00,
2013-07-20 10:22:00,82.9,74.7,29.86,WSW,254,7.0,10.0,71,0.00,,,0.00,meteohub,2013-07-20 14:22:00,
2013-07-20 10:24:00,82.9,74.3,29.89,SW,232,8.0,10.0,70,0.00,,,0.00,meteohub,2013-07-20 14:24:00,
2013-07-20 10:25:00,83.1,74.5,29.89,WSW,254,8.0,11.0,70,0.00,,,0.00,meteohub,2013-07-20 14:25:00,
2013-07-20 10:26:00,83.1,74.1,29.89,WSW,254,8.0,11.0,69,0.00,,,0.00,meteohub,2013-07-20 14:26:00,
2013-07-20 10:27:00,83.3,74.3,29.89,SW,232,6.0,11.0,69,0.00,,,0.00,meteohub,2013-07-20 14:27:00,
2013-07-20 10:30:00,83.5,73.9,29.89,SSW,209,9.0,11.0,68,0.00,,,0.00,meteohub,2013-07-20 14:30:00,
2013-07-20 10:31:00,83.5,73.9,29.89,SSW,209,6.0,11.0,68,0.00,,,0.00,meteohub,2013-07-20 14:31:00,
2013-07-20 10:32:00,83.3,74.1,29.89,SSE,164,5.0,11.0,69,0.00,,,0.00,meteohub,2013-07-20 14:32:00,
2013-07-20 10:33:00,83.3,74.1,29.89,WSW,254,6.0,11.0,69,0.00,,,0.00,meteohub,2013-07-20 14:33:00,
2013-07-20 10:35:00,83.5,74.5,29.89,SSW,209,6.0,9.0,70,0.00,,,0.00,meteohub,2013-07-20 14:35:00,
2013-07-20 10:36:00,83.5,74.5,29.89,SSW,209,4.0,9.0,70,0.00,,,0.00,meteohub,2013-07-20 14:36:00,
2013-07-20 10:38:00,83.5,75.0,29.89,WSW,254,4.0,9.0,71,0.00,,,0.00,meteohub,2013-07-20 14:38:00,
2013-07-20 10:39:00,83.5,74.5,29.89,SW,232,4.0,9.0,70,0.00,,,0.00,meteohub,2013-07-20 14:39:00,
2013-07-20 10:41:00,83.7,74.5,29.89,SSW,209,3.0,9.0,70,0.00,,,0.00,meteohub,2013-07-20 14:41:00,
2013-07-20 10:42:00,83.7,74.7,29.89,SSW,209,6.0,9.0,70,0.00,,,0.00,meteohub,2013-07-20 14:42:00,
2013-07-20 10:44:00,83.7,74.7,29.89,SW,232,7.0,9.0,70,0.00,,,0.00,meteohub,2013-07-20 14:44:00,
2013-07-20 10:45:00,83.7,74.5,29.89,SW,232,6.0,10.0,69,0.00,,,0.00,meteohub,2013-07-20 14:45:00,
2013-07-20 10:46:00,83.7,74.5,29.89,SSW,209,8.0,10.0,69,0.00,,,0.00,meteohub,2013-07-20 14:46:00,
2013-07-20 10:47:00,83.5,74.3,29.89,SW,232,10.0,10.0,69,0.00,,,0.00,meteohub,2013-07-20 14:47:00,
2013-07-20 10:49:00,83.5,74.3,29.89,SSW,209,7.0,10.0,69,0.00,,,0.00,meteohub,2013-07-20 14:49:00,
2013-07-20 10:50:00,83.5,74.3,29.89,SSW,209,8.0,10.0,69,0.00,,,0.00,meteohub,2013-07-20 14:50:00,
2013-07-20 10:51:00,83.5,74.3,29.89,SSW,209,7.0,10.0,69,0.00,,,0.00,meteohub,2013-07-20 14:51:00,
2013-07-20 10:52:00,83.5,74.3,29.89,SSW,209,6.0,10.0,69,0.00,,,0.00,meteohub,2013-07-20 14:52:00,
2013-07-20 10:53:00,83.5,74.3,29.89,SSW,209,7.0,10.0,69,0.00,,,0.00,meteohub,2013-07-20 14:53:00,
2013-07-20 10:54:00,83.5,74.3,29.89,SW,232,5.0,10.0,69,0.00,,,0.00,meteohub,2013-07-20 14:54:00,
2013-07-20 10:55:00,83.8,73.9,29.89,West,276,6.0,10.0,68,0.00,,,0.00,meteohub,2013-07-20 14:55:00,
2013-07-20 10:56:00,84.0,73.9,29.89,SSW,209,5.0,10.0,68,0.00,,,0.00,meteohub,2013-07-20 14:56:00,
2013-07-20 10:57:00,84.0,74.1,29.89,SSW,209,4.0,10.0,68,0.00,,,0.00,meteohub,2013-07-20 14:57:00,
2013-07-20 10:58:00,84.4,74.8,29.89,SSW,209,3.0,10.0,69,0.00,,,0.00,meteohub,2013-07-20 14:58:00,
2013-07-20 11:00:00,84.9,75.0,29.89,SSW,209,5.0,10.0,69,0.00,,,0.00,meteohub,2013-07-20 15:00:00,
2013-07-20 11:01:00,85.1,75.2,29.89,SSW,209,8.0,10.0,69,0.00,,,0.00,meteohub,2013-07-20 15:01:00,
2013-07-20 11:02:00,85.1,74.7,29.89,SSW,209,6.0,10.0,68,0.00,,,0.00,meteohub,2013-07-20 15:02:00,
2013-07-20 11:04:00,85.3,74.8,29.89,SSW,209,4.0,10.0,68,0.00,,,0.00,meteohub,2013-07-20 15:04:00,
2013-07-20 11:06:00,85.3,74.8,29.89,SW,232,11.0,11.0,68,0.00,,,0.00,meteohub,2013-07-20 15:06:00,
2013-07-20 11:10:00,84.9,74.5,29.86,SSW,209,8.0,10.0,67,0.00,,,0.00,meteohub,2013-07-20 15:10:00,
2013-07-20 11:11:00,84.9,73.9,29.86,SW,232,6.0,13.0,66,0.00,,,0.00,meteohub,2013-07-20 15:11:00,
2013-07-20 11:12:00,84.7,73.9,29.86,WSW,254,8.0,13.0,66,0.00,,,0.00,meteohub,2013-07-20 15:12:00,
2013-07-20 11:15:00,85.1,74.8,29.86,WSW,254,6.0,13.0,67,0.00,,,0.00,meteohub,2013-07-20 15:15:00,
2013-07-20 11:16:00,85.1,74.8,29.86,WSW,254,5.0,13.0,67,0.00,,,0.00,meteohub,2013-07-20 15:16:00,
2013-07-20 11:17:00,85.5,74.8,29.86,WSW,254,4.0,13.0,67,0.00,,,0.00,meteohub,2013-07-20 15:17:00,
2013-07-20 11:21:00,85.6,75.2,29.86,WSW,254,5.0,13.0,67,0.00,,,0.00,meteohub,2013-07-20 15:21:00,
2013-07-20 11:22:00,85.8,74.7,29.86,SW,232,7.0,13.0,66,0.00,,,0.00,meteohub,2013-07-20 15:22:00,
2013-07-20 11:23:00,86.0,74.8,29.86,SSW,209,6.0,13.0,66,0.00,,,0.00,meteohub,2013-07-20 15:23:00,
2013-07-20 11:26:00,86.4,74.8,29.86,SW,232,6.0,11.0,66,0.00,,,0.00,meteohub,2013-07-20 15:26:00,
2013-07-20 11:27:00,86.4,75.0,29.86,SW,232,7.0,11.0,66,0.00,,,0.00,meteohub,2013-07-20 15:27:00,
2013-07-20 11:28:00,86.4,75.0,29.86,SW,232,6.0,11.0,66,0.00,,,0.00,meteohub,2013-07-20 15:28:00,
2013-07-20 11:32:00,86.7,74.7,29.86,WSW,254,6.0,10.0,65,0.00,,,0.00,meteohub,2013-07-20 15:32:00,
2013-07-20 11:33:00,86.7,74.8,29.86,WSW,254,6.0,10.0,65,0.00,,,0.00,meteohub,2013-07-20 15:33:00,
2013-07-20 11:37:00,86.9,74.7,29.86,SW,232,6.0,10.0,64,0.00,,,0.00,meteohub,2013-07-20 15:37:00,
2013-07-20 11:38:00,86.9,74.7,29.86,SSW,209,8.0,10.0,64,0.00,,,0.00,meteohub,2013-07-20 15:38:00,
2013-07-20 11:39:00,86.9,74.8,29.86,WSW,254,9.0,10.0,64,0.00,,,0.00,meteohub,2013-07-20 15:39:00,
2013-07-20 11:42:00,87.3,75.0,29.86,SW,232,9.0,11.0,64,0.00,,,0.00,meteohub,2013-07-20 15:42:00,
2013-07-20 11:43:00,87.3,75.0,29.86,WSW,254,6.0,11.0,64,0.00,,,0.00,meteohub,2013-07-20 15:43:00,
2013-07-20 11:44:00,87.1,75.0,29.86,WSW,254,11.0,11.0,64,0.00,,,0.00,meteohub,2013-07-20 15:44:00,
2013-07-20 11:45:00,87.1,74.5,29.86,SSW,209,6.0,11.0,63,0.00,,,0.00,meteohub,2013-07-20 15:45:00,
2013-07-20 11:48:00,87.6,75.2,29.86,WSW,254,4.0,11.0,64,0.00,,,0.00,meteohub,2013-07-20 15:48:00,
2013-07-20 11:49:00,88.2,75.4,29.86,SSW,209,3.0,11.0,64,0.00,,,0.00,meteohub,2013-07-20 15:49:00,
2013-07-20 11:50:00,88.3,75.4,29.86,WSW,254,4.0,11.0,64,0.00,,,0.00,meteohub,2013-07-20 15:50:00,
2013-07-20 11:53:00,88.7,75.7,29.86,SW,232,5.0,11.0,64,0.00,,,0.00,meteohub,2013-07-20 15:53:00,
2013-07-20 11:54:00,88.9,75.7,29.86,WSW,254,4.0,11.0,64,0.00,,,0.00,meteohub,2013-07-20 15:54:00,
2013-07-20 11:55:00,89.1,75.9,29.86,SSW,209,6.0,11.0,64,0.00,,,0.00,meteohub,2013-07-20 15:55:00,
2013-07-20 11:56:00,89.1,75.9,29.86,SSW,209,6.0,11.0,64,0.00,,,0.00,meteohub,2013-07-20 15:56:00,
2013-07-20 11:59:00,89.2,75.9,29.86,SW,232,6.0,11.0,63,0.00,,,0.00,meteohub,2013-07-20 15:59:00,
2013-07-20 12:01:00,89.2,75.9,29.86,SSW,209,5.0,9.0,63,0.00,,,0.00,meteohub,2013-07-20 16:01:00,
2013-07-20 12:02:00,89.6,75.9,29.86,WSW,254,7.0,9.0,63,0.00,,,0.00,meteohub,2013-07-20 16:02:00,
2013-07-20 12:04:00,89.8,75.7,29.86,SW,232,8.0,9.0,62,0.00,,,0.00,meteohub,2013-07-20 16:04:00,
2013-07-20 12:05:00,89.8,75.9,29.86,SW,232,7.0,9.0,62,0.00,,,0.00,meteohub,2013-07-20 16:05:00,
2013-07-20 12:06:00,89.8,75.9,29.86,WSW,254,6.0,9.0,62,0.00,,,0.00,meteohub,2013-07-20 16:06:00,
2013-07-20 12:07:00,90.0,75.9,29.86,WSW,254,6.0,9.0,62,0.00,,,0.00,meteohub,2013-07-20 16:07:00,
2013-07-20 12:10:00,90.5,75.9,29.86,South,186,4.0,9.0,61,0.00,,,0.00,meteohub,2013-07-20 16:10:00,
2013-07-20 12:11:00,90.7,75.9,29.86,SSE,164,4.0,9.0,61,0.00,,,0.00,meteohub,2013-07-20 16:11:00,
2013-07-20 12:12:00,90.7,75.9,29.86,SW,232,6.0,9.0,61,0.00,,,0.00,meteohub,2013-07-20 16:12:00,
2013-07-20 12:15:00,91.6,75.6,29.86,SSW,209,2.0,10.0,60,0.00,,,0.00,meteohub,2013-07-20 16:15:00,
2013-07-20 12:16:00,91.8,75.7,29.86,NW,322,4.0,10.0,60,0.00,,,0.00,meteohub,2013-07-20 16:16:00,
2013-07-20 12:17:00,92.1,75.9,29.86,WSW,254,4.0,10.0,60,0.00,,,0.00,meteohub,2013-07-20 16:17:00,
2013-07-20 12:21:00,91.9,75.4,29.86,SW,232,11.0,11.0,59,0.00,,,0.00,meteohub,2013-07-20 16:21:00,
2013-07-20 12:22:00,91.9,75.6,29.86,West,276,4.0,10.0,59,0.00,,,0.00,meteohub,2013-07-20 16:22:00,
2013-07-20 12:23:00,92.1,74.8,29.86,NW,322,4.0,10.0,58,0.00,,,0.00,meteohub,2013-07-20 16:23:00,
2013-07-20 12:27:00,92.3,75.2,29.86,SW,232,4.0,11.0,58,0.00,,,0.00,meteohub,2013-07-20 16:27:00,
2013-07-20 12:28:00,92.3,75.2,29.86,West,276,6.0,11.0,58,0.00,,,0.00,meteohub,2013-07-20 16:28:00,
2013-07-20 12:32:00,91.4,74.3,29.86,WSW,254,4.0,11.0,56,0.00,,,0.00,meteohub,2013-07-20 16:32:00,
2013-07-20 12:33:00,91.4,74.3,29.86,SW,232,9.0,11.0,56,0.00,,,0.00,meteohub,2013-07-20 16:33:00,
2013-07-20 12:37:00,90.5,73.8,29.86,SSW,209,9.0,11.0,55,0.00,,,0.00,meteohub,2013-07-20 16:37:00,
2013-07-20 12:38:00,90.3,73.0,29.83,SSW,209,6.0,11.0,54,0.00,,,0.00,meteohub,2013-07-20 16:38:00,
2013-07-20 12:39:00,90.3,72.9,29.83,SW,232,6.0,11.0,54,0.00,,,0.00,meteohub,2013-07-20 16:39:00,
2013-07-20 12:42:00,90.1,72.9,29.83,SW,232,13.0,13.0,54,0.00,,,0.00,meteohub,2013-07-20 16:42:00,
2013-07-20 12:43:00,90.5,73.0,29.83,SW,232,6.0,12.0,54,0.00,,,0.00,meteohub,2013-07-20 16:43:00,
2013-07-20 12:44:00,90.5,73.0,29.83,SW,232,8.0,12.0,54,0.00,,,0.00,meteohub,2013-07-20 16:44:00,
2013-07-20 12:47:00,90.9,73.6,29.83,SW,232,7.0,13.0,55,0.00,,,0.00,meteohub,2013-07-20 16:47:00,
2013-07-20 12:49:00,91.0,73.6,29.83,SW,232,7.0,13.0,55,0.00,,,0.00,meteohub,2013-07-20 16:49:00,
2013-07-20 12:50:00,90.9,73.6,29.83,WSW,254,10.0,13.0,55,0.00,,,0.00,meteohub,2013-07-20 16:50:00,
2013-07-20 12:52:00,90.5,73.8,29.83,WSW,254,7.0,13.0,55,0.00,,,0.00,meteohub,2013-07-20 16:52:00,
2013-07-20 12:54:00,90.7,72.9,29.83,West,276,6.0,13.0,53,0.00,,,0.00,meteohub,2013-07-20 16:54:00,
2013-07-20 12:55:00,90.5,72.9,29.83,WSW,254,6.0,13.0,53,0.00,,,0.00,meteohub,2013-07-20 16:55:00,
2013-07-20 12:56:00,90.7,72.3,29.83,SW,232,8.0,13.0,52,0.00,,,0.00,meteohub,2013-07-20 16:56:00,
2013-07-20 12:57:00,90.5,72.3,29.83,SSW,209,8.0,13.0,52,0.00,,,0.00,meteohub,2013-07-20 16:57:00,
2013-07-20 12:59:00,91.0,71.8,29.83,WSW,254,3.0,13.0,51,0.00,,,0.00,meteohub,2013-07-20 16:59:00,
2013-07-20 13:00:00,91.4,72.3,29.83,SSW,209,2.0,13.0,52,0.00,,,0.00,meteohub,2013-07-20 17:00:00,
2013-07-20 13:01:00,91.6,72.3,29.83,NNW,344,5.0,13.0,52,0.00,,,0.00,meteohub,2013-07-20 17:01:00,
2013-07-20 13:02:00,91.6,72.3,29.83,West,276,4.0,13.0,52,0.00,,,0.00,meteohub,2013-07-20 17:02:00,
2013-07-20 13:04:00,91.4,71.8,29.83,SW,232,6.0,13.0,51,0.00,,,0.00,meteohub,2013-07-20 17:04:00,
2013-07-20 13:06:00,91.4,71.8,29.83,SSW,209,11.0,13.0,51,0.00,,,0.00,meteohub,2013-07-20 17:06:00,
2013-07-20 13:07:00,91.2,71.8,29.83,SSW,209,12.0,13.0,51,0.00,,,0.00,meteohub,2013-07-20 17:07:00,
2013-07-20 13:09:00,91.6,70.7,29.83,WNW,299,3.0,13.0,49,0.00,,,0.00,meteohub,2013-07-20 17:09:00,
2013-07-20 13:10:00,91.8,70.7,29.83,WNW,299,3.0,13.0,49,0.00,,,0.00,meteohub,2013-07-20 17:10:00,
2013-07-20 13:12:00,92.1,71.4,29.83,SW,232,9.0,12.0,50,0.00,,,0.00,meteohub,2013-07-20 17:12:00,
2013-07-20 13:14:00,92.3,71.8,29.83,NNE,29,3.0,12.0,50,0.00,,,0.00,meteohub,2013-07-20 17:14:00,
2013-07-20 13:15:00,92.3,71.8,29.83,NNE,29,3.0,12.0,50,0.00,,,0.00,meteohub,2013-07-20 17:15:00,
2013-07-20 13:17:00,92.3,72.0,29.83,WSW,254,9.0,12.0,50,0.00,,,0.00,meteohub,2013-07-20 17:17:00,
2013-07-20 13:18:00,92.3,72.0,29.83,WSW,254,9.0,12.0,50,0.00,,,0.00,meteohub,2013-07-20 17:18:00,
2013-07-20 13:20:00,92.1,71.4,29.83,WSW,254,11.0,12.0,49,0.00,,,0.00,meteohub,2013-07-20 17:20:00,
2013-07-20 13:22:00,92.1,71.4,29.83,WNW,299,17.0,17.0,49,0.00,,,0.00,meteohub,2013-07-20 17:22:00,
2013-07-20 13:23:00,92.1,71.4,29.86,WSW,254,13.0,14.0,49,0.00,,,0.00,meteohub,2013-07-20 17:23:00,
2013-07-20 13:25:00,91.9,70.9,29.86,SSW,209,8.0,17.0,48,0.00,,,0.00,meteohub,2013-07-20 17:25:00,
2013-07-20 13:28:00,92.1,70.9,29.86,SE,142,7.0,17.0,48,0.00,,,0.00,meteohub,2013-07-20 17:28:00,
2013-07-20 13:29:00,91.9,70.7,29.86,SSW,209,5.0,17.0,48,0.00,,,0.00,meteohub,2013-07-20 17:29:00,
2013-07-20 13:31:00,91.9,70.7,29.86,SW,232,9.0,17.0,48,0.00,,,0.00,meteohub,2013-07-20 17:31:00,
2013-07-20 13:33:00,92.1,71.6,29.86,WSW,254,8.0,17.0,49,0.00,,,0.00,meteohub,2013-07-20 17:33:00,
2013-07-20 13:34:00,92.5,71.6,29.86,WSW,254,8.0,17.0,49,0.00,,,0.00,meteohub,2013-07-20 17:34:00,
2013-07-20 13:36:00,93.2,71.8,29.86,SW,232,6.0,17.0,49,0.00,,,0.00,meteohub,2013-07-20 17:36:00,
2013-07-20 13:38:00,93.7,72.9,29.86,WSW,254,11.0,17.0,50,0.00,,,0.00,meteohub,2013-07-20 17:38:00,
2013-07-20 13:39:00,93.4,72.9,29.86,WNW,299,13.0,17.0,50,0.00,,,0.00,meteohub,2013-07-20 17:39:00,
2013-07-20 13:40:00,93.2,72.9,29.86,SSW,209,10.0,17.0,50,0.00,,,0.00,meteohub,2013-07-20 17:40:00,
2013-07-20 13:42:00,93.0,72.1,29.86,WNW,299,8.0,13.0,49,0.00,,,0.00,meteohub,2013-07-20 17:42:00,
2013-07-20 13:43:00,92.8,71.6,29.86,SW,232,6.0,13.0,48,0.00,,,0.00,meteohub,2013-07-20 17:43:00,
2013-07-20 13:44:00,92.8,71.6,29.86,SSW,209,9.0,13.0,48,0.00,,,0.00,meteohub,2013-07-20 17:44:00,
2013-07-20 13:45:00,93.0,71.6,29.86,WSW,254,6.0,14.0,48,0.00,,,0.00,meteohub,2013-07-20 17:45:00,
2013-07-20 13:48:00,92.8,71.4,29.86,WSW,254,6.0,14.0,48,0.00,,,0.00,meteohub,2013-07-20 17:48:00,
2013-07-20 13:49:00,92.8,72.0,29.86,West,276,5.0,14.0,49,0.00,,,0.00,meteohub,2013-07-20 17:49:00,
2013-07-20 13:50:00,93.2,72.1,29.86,SSW,209,6.0,14.0,49,0.00,,,0.00,meteohub,2013-07-20 17:50:00,
2013-07-20 13:53:00,93.0,72.1,29.83,WSW,254,10.0,14.0,49,0.00,,,0.00,meteohub,2013-07-20 17:53:00,
2013-07-20 13:54:00,92.8,72.1,29.83,WSW,254,7.0,14.0,49,0.00,,,0.00,meteohub,2013-07-20 17:54:00,
2013-07-20 13:55:00,92.8,72.1,29.83,SSE,164,7.0,14.0,49,0.00,,,0.00,meteohub,2013-07-20 17:55:00,
2013-07-20 13:58:00,92.7,71.8,29.83,WSW,254,4.0,14.0,48,0.00,,,0.00,meteohub,2013-07-20 17:58:00,
2013-07-20 13:59:00,92.5,71.8,29.83,SW,232,8.0,14.0,48,0.00,,,0.00,meteohub,2013-07-20 17:59:00,
2013-07-20 14:00:00,92.5,72.3,29.83,SW,232,8.0,14.0,49,0.00,,,0.00,meteohub,2013-07-20 18:00:00,
2013-07-20 14:01:00,92.1,71.6,29.83,SSW,209,8.0,11.0,48,0.00,,,0.00,meteohub,2013-07-20 18:01:00,
2013-07-20 14:03:00,91.9,71.4,29.83,SW,232,10.0,11.0,48,0.00,,,0.00,meteohub,2013-07-20 18:03:00,
2013-07-20 14:05:00,91.9,72.0,29.83,SSW,209,10.0,11.0,49,0.00,,,0.00,meteohub,2013-07-20 18:05:00,
2013-07-20 14:06:00,91.8,72.0,29.83,WSW,254,8.0,13.0,49,0.00,,,0.00,meteohub,2013-07-20 18:06:00,
2013-07-20 14:10:00,92.7,72.7,29.83,SSW,209,4.0,13.0,50,0.00,,,0.00,meteohub,2013-07-20 18:10:00,
2013-07-20 14:11:00,92.5,73.2,29.83,SW,232,8.0,13.0,51,0.00,,,0.00,meteohub,2013-07-20 18:11:00,
2013-07-20 14:12:00,92.7,73.4,29.83,WNW,299,4.0,13.0,51,0.00,,,0.00,meteohub,2013-07-20 18:12:00,
2013-07-20 14:15:00,93.6,74.1,29.83,WSW,254,8.0,13.0,52,0.00,,,0.00,meteohub,2013-07-20 18:15:00,
2013-07-20 14:16:00,93.4,74.3,29.83,SW,232,6.0,13.0,52,0.00,,,0.00,meteohub,2013-07-20 18:16:00,
2013-07-20 14:17:00,93.6,73.9,29.83,WSW,254,5.0,13.0,51,0.00,,,0.00,meteohub,2013-07-20 18:17:00,
2013-07-20 14:18:00,93.9,73.9,29.83,SW,232,6.0,13.0,51,0.00,,,0.00,meteohub,2013-07-20 18:18:00,
2013-07-20 14:20:00,94.1,73.4,29.83,WSW,254,8.0,11.0,50,0.00,,,0.00,meteohub,2013-07-20 18:20:00,
2013-07-20 14:21:00,93.9,72.9,29.83,SSW,209,11.0,11.0,49,0.00,,,0.00,meteohub,2013-07-20 18:21:00,
2013-07-20 14:23:00,93.9,72.3,29.83,WSW,254,10.0,11.0,48,0.00,,,0.00,meteohub,2013-07-20 18:23:00,
2013-07-20 14:26:00,94.1,70.9,29.83,SW,232,6.0,12.0,46,0.00,,,0.00,meteohub,2013-07-20 18:26:00,
2013-07-20 14:27:00,94.1,70.9,29.83,WNW,299,6.0,12.0,46,0.00,,,0.00,meteohub,2013-07-20 18:27:00,
2013-07-20 14:28:00,93.9,70.9,29.83,WNW,299,10.0,12.0,46,0.00,,,0.00,meteohub,2013-07-20 18:28:00,
2013-07-20 14:29:00,93.9,70.3,29.83,South,186,5.0,12.0,45,0.00,,,0.00,meteohub,2013-07-20 18:29:00,
2013-07-20 14:31:00,93.9,69.4,29.83,WNW,299,9.0,12.0,44,0.00,,,0.00,meteohub,2013-07-20 18:31:00,
2013-07-20 14:32:00,94.3,70.2,29.83,WSW,254,5.0,12.0,45,0.00,,,0.00,meteohub,2013-07-20 18:32:00,
2013-07-20 14:33:00,94.3,69.6,29.83,WNW,299,4.0,12.0,44,0.00,,,0.00,meteohub,2013-07-20 18:33:00,
2013-07-20 14:35:00,94.3,70.3,29.83,NNE,29,10.0,12.0,45,0.00,,,0.00,meteohub,2013-07-20 18:35:00,
2013-07-20 14:37:00,94.5,70.3,29.80,SSW,209,6.0,12.0,45,0.00,,,0.00,meteohub,2013-07-20 18:37:00,
2013-07-20 14:38:00,94.5,70.3,29.80,WNW,299,3.0,12.0,45,0.00,,,0.00,meteohub,2013-07-20 18:38:00,
2013-07-20 14:39:00,94.3,70.3,29.80,WSW,254,5.0,12.0,45,0.00,,,0.00,meteohub,2013-07-20 18:39:00,
2013-07-20 14:41:00,94.3,70.5,29.80,SSW,209,7.0,10.0,45,0.00,,,0.00,meteohub,2013-07-20 18:41:00,
2013-07-20 14:42:00,94.3,71.1,29.80,WNW,299,3.0,10.0,46,0.00,,,0.00,meteohub,2013-07-20 18:42:00,
2013-07-20 14:43:00,94.5,71.1,29.80,SW,232,4.0,10.0,46,0.00,,,0.00,meteohub,2013-07-20 18:43:00,
2013-07-20 14:46:00,93.7,70.3,29.80,SW,232,9.0,10.0,45,0.00,,,0.00,meteohub,2013-07-20 18:46:00,
2013-07-20 14:47:00,93.7,70.3,29.80,WSW,254,10.0,10.0,45,0.00,,,0.00,meteohub,2013-07-20 18:47:00,
2013-07-20 14:48:00,93.7,70.3,29.80,West,276,6.0,10.0,45,0.00,,,0.00,meteohub,2013-07-20 18:48:00,
2013-07-20 14:49:00,93.7,70.3,29.80,WSW,254,8.0,10.0,45,0.00,,,0.00,meteohub,2013-07-20 18:49:00,
2013-07-20 14:53:00,93.4,70.2,29.80,SSW,209,7.0,12.0,45,0.00,,,0.00,meteohub,2013-07-20 18:53:00,
2013-07-20 14:54:00,93.0,70.9,29.80,WSW,254,7.0,12.0,46,0.00,,,0.00,meteohub,2013-07-20 18:54:00,
2013-07-20 14:56:00,93.0,70.2,29.80,SSW,209,4.0,12.0,45,0.00,,,0.00,meteohub,2013-07-20 18:56:00,
2013-07-20 14:59:00,93.6,70.0,29.80,SW,232,11.0,12.0,45,0.00,,,0.00,meteohub,2013-07-20 18:59:00,
2013-07-20 15:00:00,93.7,71.4,29.80,SW,232,8.0,12.0,47,0.00,,,0.00,meteohub,2013-07-20 19:00:00,
2013-07-20 15:01:00,94.1,70.9,29.80,West,276,3.0,12.0,46,0.00,,,0.00,meteohub,2013-07-20 19:01:00,
2013-07-20 15:05:00,94.3,70.3,29.80,WSW,254,9.0,12.0,45,0.00,,,0.00,meteohub,2013-07-20 19:05:00,
2013-07-20 15:06:00,94.1,70.3,29.80,WSW,254,10.0,12.0,45,0.00,,,0.00,meteohub,2013-07-20 19:06:00,
2013-07-20 15:07:00,93.9,70.9,29.80,WSW,254,11.0,12.0,46,0.00,,,0.00,meteohub,2013-07-20 19:07:00,
2013-07-20 15:10:00,93.9,70.9,29.80,SSW,209,8.0,12.0,46,0.00,,,0.00,meteohub,2013-07-20 19:10:00,
2013-07-20 15:12:00,94.1,70.9,29.80,WSW,254,8.0,12.0,46,0.00,,,0.00,meteohub,2013-07-20 19:12:00,
2013-07-20 15:13:00,94.1,70.9,29.80,WSW,254,8.0,12.0,46,0.00,,,0.00,meteohub,2013-07-20 19:13:00,
2013-07-20 15:16:00,93.7,70.7,29.80,SSW,209,6.0,11.0,46,0.00,,,0.00,meteohub,2013-07-20 19:16:00,
2013-07-20 15:17:00,93.7,70.7,29.80,WNW,299,2.0,11.0,46,0.00,,,0.00,meteohub,2013-07-20 19:17:00,
2013-07-20 15:18:00,93.6,70.7,29.80,WSW,254,3.0,11.0,46,0.00,,,0.00,meteohub,2013-07-20 19:18:00,
2013-07-20 15:19:00,93.6,70.7,29.80,WSW,254,3.0,11.0,46,0.00,,,0.00,meteohub,2013-07-20 19:19:00,
2013-07-20 15:21:00,93.6,70.9,29.80,SSW,209,8.0,11.0,46,0.00,,,0.00,meteohub,2013-07-20 19:21:00,
2013-07-20 15:23:00,93.7,71.4,29.80,WSW,254,5.0,11.0,47,0.00,,,0.00,meteohub,2013-07-20 19:23:00,
2013-07-20 15:24:00,93.6,71.4,29.80,SSW,209,13.0,13.0,47,0.00,,,0.00,meteohub,2013-07-20 19:24:00,
2013-07-20 15:26:00,93.6,71.4,29.80,SSW,209,8.0,11.0,47,0.00,,,0.00,meteohub,2013-07-20 19:26:00,
2013-07-20 15:27:00,93.6,71.4,29.80,WSW,254,9.0,11.0,47,0.00,,,0.00,meteohub,2013-07-20 19:27:00,
2013-07-20 15:29:00,93.4,71.2,29.80,SW,232,8.0,11.0,47,0.00,,,0.00,meteohub,2013-07-20 19:29:00,
2013-07-20 15:30:00,93.7,71.2,29.80,SW,232,7.0,13.0,47,0.00,,,0.00,meteohub,2013-07-20 19:30:00,
2013-07-20 15:32:00,93.7,71.2,29.80,SW,232,10.0,13.0,47,0.00,,,0.00,meteohub,2013-07-20 19:32:00,
2013-07-20 15:35:00,93.7,71.1,29.80,WSW,254,4.0,13.0,47,0.00,,,0.00,meteohub,2013-07-20 19:35:00,
2013-07-20 15:36:00,93.7,70.5,29.80,SW,232,9.0,13.0,46,0.00,,,0.00,meteohub,2013-07-20 19:36:00,
2013-07-20 15:37:00,93.7,70.5,29.80,SSW,209,8.0,13.0,46,0.00,,,0.00,meteohub,2013-07-20 19:37:00,
2013-07-20 15:40:00,94.1,70.5,29.80,SSW,209,9.0,13.0,46,0.00,,,0.00,meteohub,2013-07-20 19:40:00,
2013-07-20 15:41:00,94.3,71.1,29.80,WSW,254,10.0,13.0,47,0.00,,,0.00,meteohub,2013-07-20 19:41:00,
2013-07-20 15:42:00,94.1,71.1,29.80,SW,232,11.0,13.0,47,0.00,,,0.00,meteohub,2013-07-20 19:42:00,
2013-07-20 15:43:00,94.1,71.2,29.80,SW,232,10.0,13.0,47,0.00,,,0.00,meteohub,2013-07-20 19:43:00,
2013-07-20 15:46:00,93.7,70.7,29.80,South,186,10.0,17.0,46,0.00,,,0.00,meteohub,2013-07-20 19:46:00,
2013-07-20 15:47:00,93.7,70.7,29.80,WSW,254,8.0,17.0,46,0.00,,,0.00,meteohub,2013-07-20 19:47:00,
2013-07-20 15:48:00,93.6,70.5,29.80,WNW,299,8.0,17.0,46,0.00,,,0.00,meteohub,2013-07-20 19:48:00,
2013-07-20 15:50:00,93.6,70.5,29.80,SSW,209,10.0,17.0,46,0.00,,,0.00,meteohub,2013-07-20 19:50:00,
2013-07-20 15:52:00,93.4,69.8,29.80,WSW,254,8.0,17.0,45,0.00,,,0.00,meteohub,2013-07-20 19:52:00,
2013-07-20 15:55:00,93.2,70.3,29.77,SSW,209,9.0,17.0,46,0.00,,,0.00,meteohub,2013-07-20 19:55:00,
2013-07-20 15:56:00,93.6,70.3,29.77,WNW,299,5.0,17.0,46,0.00,,,0.00,meteohub,2013-07-20 19:56:00,
2013-07-20 15:58:00,93.9,70.3,29.77,SW,232,6.0,17.0,46,0.00,,,0.00,meteohub,2013-07-20 19:58:00,
2013-07-20 16:00:00,93.7,70.9,29.77,SW,232,9.0,13.0,47,0.00,,,0.00,meteohub,2013-07-20 20:00:00,
2013-07-20 16:02:00,93.9,70.3,29.77,WSW,254,5.0,13.0,46,0.00,,,0.00,meteohub,2013-07-20 20:02:00,
2013-07-20 16:04:00,93.9,70.3,29.77,SSW,209,7.0,13.0,46,0.00,,,0.00,meteohub,2013-07-20 20:04:00,
2013-07-20 16:06:00,93.7,70.3,29.77,SSW,209,6.0,13.0,46,0.00,,,0.00,meteohub,2013-07-20 20:06:00,
2013-07-20 16:07:00,93.7,70.3,29.77,SSW,209,11.0,13.0,46,0.00,,,0.00,meteohub,2013-07-20 20:07:00,
2013-07-20 16:10:00,93.7,69.6,29.77,SSW,209,14.0,14.0,45,0.00,,,0.00,meteohub,2013-07-20 20:10:00,
2013-07-20 16:11:00,93.4,69.6,29.77,SSW,209,21.0,21.0,45,0.00,,,0.00,meteohub,2013-07-20 20:11:00,
2013-07-20 16:12:00,93.4,69.6,29.77,WSW,254,11.0,13.0,45,0.00,,,0.00,meteohub,2013-07-20 20:12:00,
2013-07-20 16:13:00,93.2,69.1,29.77,WSW,254,15.0,15.0,44,0.00,,,0.00,meteohub,2013-07-20 20:13:00,
2013-07-20 16:16:00,93.0,68.9,29.77,SSW,209,12.0,21.0,44,0.00,,,0.00,meteohub,2013-07-20 20:16:00,
2013-07-20 16:17:00,93.0,68.9,29.77,SSW,209,12.0,21.0,44,0.00,,,0.00,meteohub,2013-07-20 20:17:00,
2013-07-20 16:18:00,93.2,68.9,29.77,SW,232,4.0,21.0,44,0.00,,,0.00,meteohub,2013-07-20 20:18:00,
2013-07-20 16:22:00,93.4,68.9,29.77,SSW,209,10.0,21.0,44,0.00,,,0.00,meteohub,2013-07-20 20:22:00,
2013-07-20 16:23:00,93.2,68.9,29.77,West,276,8.0,21.0,44,0.00,,,0.00,meteohub,2013-07-20 20:23:00,
2013-07-20 16:27:00,93.7,68.9,29.77,WSW,254,11.0,21.0,44,0.00,,,0.00,meteohub,2013-07-20 20:27:00,
2013-07-20 16:28:00,93.7,69.1,29.77,WSW,254,15.0,21.0,44,0.00,,,0.00,meteohub,2013-07-20 20:28:00,
2013-07-20 16:32:00,93.4,68.4,29.77,WSW,254,8.0,19.0,43,0.00,,,0.00,meteohub,2013-07-20 20:32:00,
2013-07-20 16:33:00,93.4,68.4,29.77,WSW,254,10.0,19.0,43,0.00,,,0.00,meteohub,2013-07-20 20:33:00,
2013-07-20 16:35:00,93.4,68.2,29.77,SSW,209,9.0,19.0,43,0.00,,,0.00,meteohub,2013-07-20 20:35:00,
2013-07-20 16:37:00,93.4,68.2,29.77,SSW,209,6.0,19.0,43,0.00,,,0.00,meteohub,2013-07-20 20:37:00,
2013-07-20 16:38:00,93.6,68.2,29.77,SW,232,5.0,19.0,43,0.00,,,0.00,meteohub,2013-07-20 20:38:00,
2013-07-20 16:39:00,93.6,68.2,29.77,SW,232,5.0,19.0,43,0.00,,,0.00,meteohub,2013-07-20 20:39:00,
2013-07-20 16:40:00,93.4,68.2,29.77,SW,232,9.0,19.0,43,0.00,,,0.00,meteohub,2013-07-20 20:40:00,
2013-07-20 16:43:00,93.4,68.9,29.77,SSW,209,11.0,19.0,44,0.00,,,0.00,meteohub,2013-07-20 20:43:00,
2013-07-20 16:44:00,93.2,68.9,29.77,WSW,254,11.0,19.0,44,0.00,,,0.00,meteohub,2013-07-20 20:44:00,
2013-07-20 16:45:00,93.2,68.9,29.77,SSW,209,13.0,16.0,44,0.00,,,0.00,meteohub,2013-07-20 20:45:00,
2013-07-20 16:49:00,93.0,68.7,29.77,SSW,209,8.0,16.0,44,0.00,,,0.00,meteohub,2013-07-20 20:49:00,
2013-07-20 16:50:00,93.2,68.7,29.77,SSW,209,8.0,16.0,44,0.00,,,0.00,meteohub,2013-07-20 20:50:00,
2013-07-20 16:54:00,93.6,69.3,29.77,WSW,254,10.0,16.0,45,0.00,,,0.00,meteohub,2013-07-20 20:54:00,
2013-07-20 16:55:00,93.4,69.3,29.77,WSW,254,8.0,16.0,45,0.00,,,0.00,meteohub,2013-07-20 20:55:00,
2013-07-20 16:56:00,93.4,68.7,29.77,WSW,254,8.0,16.0,44,0.00,,,0.00,meteohub,2013-07-20 20:56:00,
2013-07-20 16:59:00,93.4,68.7,29.77,SW,232,4.0,16.0,44,0.00,,,0.00,meteohub,2013-07-20 20:59:00,
2013-07-20 17:01:00,93.4,68.7,29.77,WSW,254,6.0,15.0,44,0.00,,,0.00,meteohub,2013-07-20 21:01:00,
2013-07-20 17:02:00,93.6,69.4,29.77,SW,232,12.0,15.0,45,0.00,,,0.00,meteohub,2013-07-20 21:02:00,
2013-07-20 17:05:00,93.6,68.9,29.77,WSW,254,9.0,15.0,44,0.00,,,0.00,meteohub,2013-07-20 21:05:00,
2013-07-20 17:06:00,93.7,69.1,29.77,SW,232,6.0,15.0,44,0.00,,,0.00,meteohub,2013-07-20 21:06:00,
2013-07-20 17:07:00,93.6,69.1,29.77,WSW,254,15.0,15.0,44,0.00,,,0.00,meteohub,2013-07-20 21:07:00,
2013-07-20 17:08:00,93.6,69.1,29.77,WSW,254,9.0,15.0,44,0.00,,,0.00,meteohub,2013-07-20 21:08:00,
2013-07-20 17:10:00,93.4,69.1,29.77,SSW,209,15.0,15.0,44,0.00,,,0.00,meteohub,2013-07-20 21:10:00,
2013-07-20 17:12:00,93.2,69.1,29.77,SSW,209,10.0,18.0,44,0.00,,,0.00,meteohub,2013-07-20 21:12:00,
2013-07-20 17:13:00,93.2,68.9,29.77,SSW,209,9.0,18.0,44,0.00,,,0.00,meteohub,2013-07-20 21:13:00,
2013-07-20 17:15:00,93.4,68.9,29.77,WSW,254,9.0,18.0,44,0.00,,,0.00,meteohub,2013-07-20 21:15:00,
2013-07-20 17:17:00,93.4,69.1,29.77,SW,232,10.0,18.0,44,0.00,,,0.00,meteohub,2013-07-20 21:17:00,
2013-07-20 17:18:00,93.4,69.1,29.77,SW,232,10.0,18.0,44,0.00,,,0.00,meteohub,2013-07-20 21:18:00,
2013-07-20 17:19:00,93.4,69.1,29.77,SSW,209,10.0,18.0,44,0.00,,,0.00,meteohub,2013-07-20 21:19:00,
2013-07-20 17:21:00,93.6,68.5,29.77,SW,232,9.0,18.0,43,0.00,,,0.00,meteohub,2013-07-20 21:21:00,
2013-07-20 17:22:00,93.7,69.3,29.77,WSW,254,8.0,18.0,44,0.00,,,0.00,meteohub,2013-07-20 21:22:00,
2013-07-20 17:23:00,93.7,69.3,29.77,SSW,209,7.0,18.0,44,0.00,,,0.00,meteohub,2013-07-20 21:23:00,
2013-07-20 17:24:00,93.9,69.3,29.77,WSW,254,6.0,18.0,44,0.00,,,0.00,meteohub,2013-07-20 21:24:00,
2013-07-20 17:28:00,93.9,69.4,29.77,WSW,254,9.0,13.0,44,0.00,,,0.00,meteohub,2013-07-20 21:28:00,
2013-07-20 17:30:00,93.9,69.4,29.77,SSW,209,8.0,13.0,44,0.00,,,0.00,meteohub,2013-07-20 21:30:00,
2013-07-20 17:34:00,93.7,69.3,29.77,WSW,254,6.0,13.0,44,0.00,,,0.00,meteohub,2013-07-20 21:34:00,
2013-07-20 17:35:00,93.7,69.3,29.77,WSW,254,6.0,15.0,44,0.00,,,0.00,meteohub,2013-07-20 21:35:00,
2013-07-20 17:40:00,93.7,68.7,29.74,WSW,254,11.0,15.0,43,0.00,,,0.00,meteohub,2013-07-20 21:40:00,
2013-07-20 17:42:00,93.7,68.7,29.74,SW,232,4.0,15.0,43,0.00,,,0.00,meteohub,2013-07-20 21:42:00,
2013-07-20 17:45:00,93.9,70.2,29.74,SSW,209,8.0,15.0,45,0.00,,,0.00,meteohub,2013-07-20 21:45:00,
2013-07-20 17:47:00,93.9,70.2,29.74,SSW,209,7.0,15.0,45,0.00,,,0.00,meteohub,2013-07-20 21:47:00,
2013-07-20 17:48:00,93.9,70.2,29.74,South,186,4.0,15.0,45,0.00,,,0.00,meteohub,2013-07-20 21:48:00,
2013-07-20 17:50:00,93.9,70.2,29.74,South,186,7.0,15.0,45,0.00,,,0.00,meteohub,2013-07-20 21:50:00,
2013-07-20 17:52:00,93.7,70.2,29.74,SSW,209,9.0,15.0,45,0.00,,,0.00,meteohub,2013-07-20 21:52:00,
2013-07-20 17:55:00,93.4,70.0,29.74,South,186,9.0,13.0,45,0.00,,,0.00,meteohub,2013-07-20 21:55:00,
2013-07-20 17:56:00,93.4,70.0,29.74,SSW,209,11.0,13.0,45,0.00,,,0.00,meteohub,2013-07-20 21:56:00,
2013-07-20 17:57:00,93.4,70.5,29.74,WSW,254,11.0,13.0,46,0.00,,,0.00,meteohub,2013-07-20 21:57:00,
2013-07-20 18:01:00,93.2,70.5,29.74,WSW,254,9.0,13.0,46,0.00,,,0.00,meteohub,2013-07-20 22:01:00,
2013-07-20 18:02:00,93.2,70.5,29.74,South,186,5.0,13.0,46,0.00,,,0.00,meteohub,2013-07-20 22:02:00,
2013-07-20 18:06:00,93.2,70.5,29.74,WSW,254,10.0,13.0,46,0.00,,,0.00,meteohub,2013-07-20 22:06:00,
2013-07-20 18:07:00,93.2,69.8,29.74,WSW,254,10.0,13.0,45,0.00,,,0.00,meteohub,2013-07-20 22:07:00,
2013-07-20 18:08:00,93.2,69.8,29.74,SW,232,9.0,13.0,45,0.00,,,0.00,meteohub,2013-07-20 22:08:00,
2013-07-20 18:12:00,93.2,69.8,29.74,South,186,6.0,13.0,45,0.00,,,0.00,meteohub,2013-07-20 22:12:00,
2013-07-20 18:13:00,93.2,69.8,29.74,SSW,209,6.0,13.0,45,0.00,,,0.00,meteohub,2013-07-20 22:13:00,
2013-07-20 18:14:00,93.0,70.3,29.74,SSW,209,10.0,13.0,46,0.00,,,0.00,meteohub,2013-07-20 22:14:00,
2013-07-20 18:17:00,93.0,69.6,29.74,SSW,209,6.0,13.0,45,0.00,,,0.00,meteohub,2013-07-20 22:17:00,
2013-07-20 18:18:00,93.0,69.6,29.74,WSW,254,4.0,13.0,45,0.00,,,0.00,meteohub,2013-07-20 22:18:00,
2013-07-20 18:20:00,93.2,70.3,29.74,SSW,209,8.0,12.0,46,0.00,,,0.00,meteohub,2013-07-20 22:20:00,
2013-07-20 18:22:00,92.8,70.3,29.74,SSW,209,10.0,12.0,46,0.00,,,0.00,meteohub,2013-07-20 22:22:00,
2013-07-20 18:23:00,92.8,70.3,29.74,WSW,254,6.0,12.0,46,0.00,,,0.00,meteohub,2013-07-20 22:23:00,
2013-07-20 18:25:00,92.7,70.2,29.74,SW,232,10.0,13.0,46,0.00,,,0.00,meteohub,2013-07-20 22:25:00,
2013-07-20 18:26:00,92.7,70.2,29.74,SW,232,5.0,13.0,46,0.00,,,0.00,meteohub,2013-07-20 22:26:00,
2013-07-20 18:28:00,92.8,70.2,29.74,SSW,209,6.0,13.0,46,0.00,,,0.00,meteohub,2013-07-20 22:28:00,
2013-07-20 18:30:00,92.7,70.7,29.74,SSW,209,9.0,13.0,47,0.00,,,0.00,meteohub,2013-07-20 22:30:00,
2013-07-20 18:31:00,92.7,70.7,29.74,WSW,254,8.0,13.0,47,0.00,,,0.00,meteohub,2013-07-20 22:31:00,
2013-07-20 18:33:00,92.7,70.7,29.74,SW,232,13.0,13.0,47,0.00,,,0.00,meteohub,2013-07-20 22:33:00,
2013-07-20 18:35:00,92.7,70.7,29.74,SSW,209,5.0,13.0,47,0.00,,,0.00,meteohub,2013-07-20 22:35:00,
2013-07-20 18:37:00,92.7,70.7,29.74,SSW,209,4.0,13.0,47,0.00,,,0.00,meteohub,2013-07-20 22:37:00,
2013-07-20 18:38:00,92.8,70.7,29.77,SW,232,6.0,13.0,47,0.00,,,0.00,meteohub,2013-07-20 22:38:00,
2013-07-20 18:42:00,92.5,70.7,29.77,SSW,209,8.0,15.0,47,0.00,,,0.00,meteohub,2013-07-20 22:42:00,
2013-07-20 18:43:00,92.5,70.9,29.77,SSW,209,6.0,15.0,47,0.00,,,0.00,meteohub,2013-07-20 22:43:00,
2013-07-20 18:44:00,92.5,70.7,29.77,South,186,6.0,15.0,47,0.00,,,0.00,meteohub,2013-07-20 22:44:00,
2013-07-20 18:48:00,92.5,70.9,29.77,WSW,254,12.0,15.0,47,0.00,,,0.00,meteohub,2013-07-20 22:48:00,
2013-07-20 18:49:00,92.5,70.9,29.77,SSW,209,10.0,15.0,47,0.00,,,0.00,meteohub,2013-07-20 22:49:00,
2013-07-20 18:53:00,92.5,71.1,29.77,WSW,254,6.0,13.0,47,0.00,,,0.00,meteohub,2013-07-20 22:53:00,
2013-07-20 18:54:00,92.5,70.9,29.77,SSW,209,8.0,13.0,47,0.00,,,0.00,meteohub,2013-07-20 22:54:00,
2013-07-20 18:55:00,92.3,70.9,29.77,SSW,209,9.0,15.0,47,0.00,,,0.00,meteohub,2013-07-20 22:55:00,
2013-07-20 18:58:00,91.9,70.7,29.77,SW,232,11.0,15.0,47,0.00,,,0.00,meteohub,2013-07-20 22:58:00,
2013-07-20 18:59:00,91.9,70.7,29.77,SSW,209,10.0,15.0,47,0.00,,,0.00,meteohub,2013-07-20 22:59:00,
2013-07-20 19:01:00,91.8,70.7,29.77,SW,232,6.0,15.0,47,0.00,,,0.00,meteohub,2013-07-20 23:01:00,
2013-07-20 19:03:00,91.6,71.2,29.77,SSW,209,11.0,15.0,48,0.00,,,0.00,meteohub,2013-07-20 23:03:00,
2013-07-20 19:05:00,91.4,71.2,29.77,SW,232,9.0,15.0,48,0.00,,,0.00,meteohub,2013-07-20 23:05:00,
2013-07-20 19:06:00,91.2,71.1,29.77,SSW,209,13.0,13.0,48,0.00,,,0.00,meteohub,2013-07-20 23:06:00,
2013-07-20 19:09:00,91.2,71.1,29.77,SW,232,10.0,11.0,48,0.00,,,0.00,meteohub,2013-07-20 23:09:00,
2013-07-20 19:11:00,91.0,71.6,29.77,SSW,209,6.0,15.0,49,0.00,,,0.00,meteohub,2013-07-20 23:11:00,
2013-07-20 19:12:00,91.0,71.6,29.77,SSW,209,6.0,15.0,49,0.00,,,0.00,meteohub,2013-07-20 23:12:00,
2013-07-20 19:17:00,91.0,71.6,29.77,SSW,209,6.0,15.0,49,0.00,,,0.00,meteohub,2013-07-20 23:17:00,
2013-07-20 19:18:00,91.0,72.1,29.77,WSW,254,4.0,15.0,50,0.00,,,0.00,meteohub,2013-07-20 23:18:00,
2013-07-20 19:19:00,91.0,72.1,29.77,SSW,209,4.0,15.0,50,0.00,,,0.00,meteohub,2013-07-20 23:19:00,
2013-07-20 19:22:00,91.2,72.3,29.77,WSW,254,8.0,15.0,50,0.00,,,0.00,meteohub,2013-07-20 23:22:00,
2013-07-20 19:23:00,91.2,72.3,29.77,SSW,209,5.0,15.0,50,0.00,,,0.00,meteohub,2013-07-20 23:23:00,
2013-07-20 19:25:00,91.0,72.1,29.77,SSW,209,7.0,15.0,50,0.00,,,0.00,meteohub,2013-07-20 23:25:00,
2013-07-20 19:28:00,91.0,72.7,29.77,SSW,209,6.0,11.0,51,0.00,,,0.00,meteohub,2013-07-20 23:28:00,
2013-07-20 19:30:00,91.0,72.7,29.77,SW,232,11.0,11.0,51,0.00,,,0.00,meteohub,2013-07-20 23:30:00,
2013-07-20 19:31:00,91.0,72.7,29.77,WSW,254,7.0,9.0,51,0.00,,,0.00,meteohub,2013-07-20 23:31:00,
2013-07-20 19:33:00,90.9,72.5,29.77,SSW,209,7.0,9.0,51,0.00,,,0.00,meteohub,2013-07-20 23:33:00,
2013-07-20 19:35:00,90.9,72.5,29.77,SSW,209,11.0,11.0,51,0.00,,,0.00,meteohub,2013-07-20 23:35:00,
2013-07-20 19:36:00,90.9,72.5,29.77,West,276,11.0,11.0,51,0.00,,,0.00,meteohub,2013-07-20 23:36:00,
2013-07-20 19:38:00,90.7,72.9,29.80,SSW,209,6.0,11.0,52,0.00,,,0.00,meteohub,2013-07-20 23:38:00,
2013-07-20 19:40:00,90.7,72.9,29.80,SSW,209,3.0,11.0,52,0.00,,,0.00,meteohub,2013-07-20 23:40:00,
2013-07-20 19:41:00,90.7,72.9,29.80,SSW,209,8.0,11.0,52,0.00,,,0.00,meteohub,2013-07-20 23:41:00,
2013-07-20 19:42:00,90.7,72.9,29.80,SSW,209,4.0,11.0,52,0.00,,,0.00,meteohub,2013-07-20 23:42:00,
2013-07-20 19:43:00,90.5,72.9,29.80,ESE,119,3.0,11.0,52,0.00,,,0.00,meteohub,2013-07-20 23:43:00,
2013-07-20 19:45:00,90.5,73.4,29.80,WSW,254,3.0,11.0,53,0.00,,,0.00,meteohub,2013-07-20 23:45:00,
2013-07-20 19:46:00,90.5,73.4,29.80,WSW,254,7.0,11.0,53,0.00,,,0.00,meteohub,2013-07-20 23:46:00,
2013-07-20 19:49:00,90.3,73.4,29.80,SSW,209,12.0,12.0,53,0.00,,,0.00,meteohub,2013-07-20 23:49:00,
2013-07-20 19:52:00,90.0,73.8,29.80,SSW,209,3.0,15.0,54,0.00,,,0.00,meteohub,2013-07-20 23:52:00,
2013-07-20 19:53:00,89.8,73.6,29.80,SSW,209,9.0,15.0,54,0.00,,,0.00,meteohub,2013-07-20 23:53:00,
2013-07-20 19:54:00,89.8,73.6,29.80,SSW,209,10.0,15.0,54,0.00,,,0.00,meteohub,2013-07-20 23:54:00,
2013-07-20 19:57:00,89.6,73.4,29.80,WSW,254,6.0,15.0,54,0.00,,,0.00,meteohub,2013-07-20 23:57:00,
2013-07-20 19:59:00,89.4,73.8,29.80,WSW,254,16.0,16.0,55,0.00,,,0.00,meteohub,2013-07-20 23:59:00,
2013-07-20 20:00:00,89.4,73.8,29.80,WSW,254,13.0,15.0,55,0.00,,,0.00,meteohub,2013-07-21 00:00:00,
2013-07-20 20:02:00,89.2,73.8,29.80,SW,232,8.0,15.0,55,0.00,,,0.00,meteohub,2013-07-21 00:02:00,
2013-07-20 20:03:00,89.1,73.6,29.80,SSW,209,6.0,15.0,55,0.00,,,0.00,meteohub,2013-07-21 00:03:00,
2013-07-20 20:05:00,89.1,74.1,29.80,SSW,209,5.0,15.0,56,0.00,,,0.00,meteohub,2013-07-21 00:05:00,
2013-07-20 20:07:00,89.1,74.1,29.80,SW,232,3.0,16.0,56,0.00,,,0.00,meteohub,2013-07-21 00:07:00,
2013-07-20 20:10:00,88.9,74.5,29.80,SSW,209,6.0,16.0,57,0.00,,,0.00,meteohub,2013-07-21 00:10:00,
2013-07-20 20:11:00,88.9,74.5,29.80,SSW,209,6.0,16.0,57,0.00,,,0.00,meteohub,2013-07-21 00:11:00,
2013-07-20 20:12:00,88.9,74.5,29.80,SSW,209,3.0,16.0,57,0.00,,,0.00,meteohub,2013-07-21 00:12:00,
2013-07-20 20:16:00,88.5,74.7,29.81,SSW,209,4.0,9.0,58,0.00,,,0.00,meteohub,2013-07-21 00:16:00,
2013-07-20 20:17:00,88.5,74.7,29.81,SSW,209,6.0,9.0,58,0.00,,,0.00,meteohub,2013-07-21 00:17:00,
2013-07-20 20:21:00,88.2,75.0,29.81,WSW,254,4.0,10.0,59,0.00,,,0.00,meteohub,2013-07-21 00:21:00,
2013-07-20 20:22:00,88.2,75.0,29.81,WSW,254,6.0,10.0,59,0.00,,,0.00,meteohub,2013-07-21 00:22:00,
2013-07-20 20:23:00,88.0,75.4,29.78,SW,232,6.0,10.0,60,0.00,,,0.00,meteohub,2013-07-21 00:23:00,
2013-07-20 20:26:00,88.0,75.4,29.78,WSW,254,7.0,10.0,60,0.00,,,0.00,meteohub,2013-07-21 00:26:00,
2013-07-20 20:27:00,88.0,75.4,29.78,SSW,209,9.0,10.0,60,0.00,,,0.00,meteohub,2013-07-21 00:27:00,
2013-07-20 20:29:00,87.8,75.4,29.78,SW,232,10.0,10.0,60,0.00,,,0.00,meteohub,2013-07-21 00:29:00,
2013-07-20 20:32:00,87.8,75.7,29.78,SSE,164,3.0,14.0,61,0.00,,,0.00,meteohub,2013-07-21 00:32:00,
2013-07-20 20:33:00,87.8,75.7,29.78,South,186,6.0,14.0,61,0.00,,,0.00,meteohub,2013-07-21 00:33:00,
2013-07-20 20:34:00,87.8,75.7,29.78,SSW,209,6.0,14.0,61,0.00,,,0.00,meteohub,2013-07-21 00:34:00,
2013-07-20 20:37:00,87.6,75.6,29.78,SSW,209,4.0,14.0,61,0.00,,,0.00,meteohub,2013-07-21 00:37:00,
2013-07-20 20:39:00,87.6,75.6,29.78,WSW,254,4.0,14.0,61,0.00,,,0.00,meteohub,2013-07-21 00:39:00,
2013-07-20 20:42:00,87.4,75.6,29.78,SW,232,5.0,14.0,61,0.00,,,0.00,meteohub,2013-07-21 00:42:00,
2013-07-20 20:44:00,87.4,75.4,29.78,WSW,254,8.0,14.0,61,0.00,,,0.00,meteohub,2013-07-21 00:44:00,
2013-07-20 20:45:00,87.4,75.4,29.78,SSW,209,10.0,14.0,61,0.00,,,0.00,meteohub,2013-07-21 00:45:00,
2013-07-20 20:47:00,87.3,75.4,29.78,WSW,254,6.0,8.0,61,0.00,,,0.00,meteohub,2013-07-21 00:47:00,
2013-07-20 20:48:00,87.3,75.4,29.78,WSW,254,4.0,8.0,61,0.00,,,0.00,meteohub,2013-07-21 00:48:00,
2013-07-20 20:50:00,87.3,75.9,29.78,WSW,254,10.0,10.0,62,0.00,,,0.00,meteohub,2013-07-21 00:50:00,
2013-07-20 20:53:00,87.3,75.9,29.78,WSW,254,11.0,13.0,62,0.00,,,0.00,meteohub,2013-07-21 00:53:00,
2013-07-20 20:55:00,86.9,75.6,29.78,SW,232,6.0,13.0,62,0.00,,,0.00,meteohub,2013-07-21 00:55:00,
2013-07-20 20:56:00,86.9,75.6,29.78,WSW,254,6.0,13.0,62,0.00,,,0.00,meteohub,2013-07-21 00:56:00,
2013-07-20 20:58:00,86.9,75.6,29.78,SSW,209,8.0,13.0,62,0.00,,,0.00,meteohub,2013-07-21 00:58:00,
2013-07-20 21:01:00,86.9,75.6,29.78,SW,232,5.0,13.0,62,0.00,,,0.00,meteohub,2013-07-21 01:01:00,
2013-07-20 21:03:00,86.9,75.6,29.78,SSW,209,8.0,13.0,62,0.00,,,0.00,meteohub,2013-07-21 01:03:00,
2013-07-20 21:06:00,86.7,74.8,29.78,North,-999,-999.0,12.0,61,0.00,,,0.00,meteohub,2013-07-21 01:06:00,
2013-07-20 21:07:00,86.7,74.8,29.78,SW,236,5.0,12.0,61,0.00,,,0.00,meteohub,2013-07-21 01:07:00,
2013-07-20 21:09:00,86.7,74.8,29.81,SSE,168,5.0,12.0,61,0.00,,,0.00,meteohub,2013-07-21 01:09:00,
2013-07-20 21:11:00,86.7,74.8,29.81,SSW,213,8.0,11.0,61,0.00,,,0.00,meteohub,2013-07-21 01:11:00,
2013-07-20 21:12:00,86.5,74.7,29.81,WSW,258,6.0,11.0,61,0.00,,,0.00,meteohub,2013-07-21 01:12:00,
2013-07-20 21:15:00,86.5,74.7,29.81,SSW,213,8.0,11.0,61,0.00,,,0.00,meteohub,2013-07-21 01:15:00,
2013-07-20 21:16:00,86.5,74.1,29.81,South,190,6.0,13.0,60,0.00,,,0.00,meteohub,2013-07-21 01:16:00,
2013-07-20 21:17:00,86.5,74.1,29.81,South,190,6.0,13.0,60,0.00,,,0.00,meteohub,2013-07-21 01:17:00,
2013-07-20 21:22:00,86.4,74.1,29.81,SSW,213,5.0,13.0,60,0.00,,,0.00,meteohub,2013-07-21 01:22:00,
2013-07-20 21:23:00,86.4,74.1,29.81,SSW,213,6.0,13.0,60,0.00,,,0.00,meteohub,2013-07-21 01:23:00,
2013-07-20 21:25:00,86.2,73.9,29.81,SSW,213,7.0,13.0,60,0.00,,,0.00,meteohub,2013-07-21 01:25:00,
2013-07-20 21:27:00,86.2,73.9,29.81,SSW,213,5.0,13.0,60,0.00,,,0.00,meteohub,2013-07-21 01:27:00,
2013-07-20 21:29:00,86.2,73.9,29.81,SW,236,6.0,13.0,60,0.00,,,0.00,meteohub,2013-07-21 01:29:00,
2013-07-20 21:30:00,86.2,73.4,29.81,SW,236,3.0,13.0,59,0.00,,,0.00,meteohub,2013-07-21 01:30:00,
2013-07-20 21:33:00,86.2,73.2,29.81,WSW,258,4.0,10.0,59,0.00,,,0.00,meteohub,2013-07-21 01:33:00,
2013-07-20 21:34:00,86.2,73.2,29.81,SSW,213,6.0,10.0,59,0.00,,,0.00,meteohub,2013-07-21 01:34:00,
2013-07-20 21:35:00,86.0,73.2,29.81,SSW,213,10.0,10.0,59,0.00,,,0.00,meteohub,2013-07-21 01:35:00,
2013-07-20 21:38:00,86.0,73.2,29.81,SSW,213,8.0,10.0,59,0.00,,,0.00,meteohub,2013-07-21 01:38:00,
2013-07-20 21:39:00,86.0,73.0,29.81,WSW,258,5.0,10.0,59,0.00,,,0.00,meteohub,2013-07-21 01:39:00,
2013-07-20 21:40:00,86.0,73.0,29.81,WSW,258,5.0,10.0,59,0.00,,,0.00,meteohub,2013-07-21 01:40:00,
2013-07-20 21:42:00,85.8,73.0,29.81,SW,236,9.0,11.0,59,0.00,,,0.00,meteohub,2013-07-21 01:42:00,
2013-07-20 21:43:00,85.8,73.0,29.81,WSW,258,11.0,11.0,59,0.00,,,0.00,meteohub,2013-07-21 01:43:00,
2013-07-20 21:45:00,85.8,73.0,29.81,WSW,258,10.0,11.0,59,0.00,,,0.00,meteohub,2013-07-21 01:45:00,
2013-07-20 21:46:00,85.8,73.0,29.81,WSW,258,11.0,11.0,59,0.00,,,0.00,meteohub,2013-07-21 01:46:00,
2013-07-20 21:47:00,85.6,72.9,29.81,WSW,258,5.0,11.0,59,0.00,,,0.00,meteohub,2013-07-21 01:47:00,
2013-07-20 21:49:00,85.6,72.9,29.81,SSW,213,6.0,11.0,59,0.00,,,0.00,meteohub,2013-07-21 01:49:00,
2013-07-20 21:52:00,85.6,73.0,29.81,WSW,258,6.0,11.0,59,0.00,,,0.00,meteohub,2013-07-21 01:52:00,
2013-07-20 21:54:00,85.6,72.5,29.83,SSW,213,8.0,11.0,58,0.00,,,0.00,meteohub,2013-07-21 01:54:00,
2013-07-20 21:57:00,85.5,72.0,29.83,WSW,258,10.0,11.0,57,0.00,,,0.00,meteohub,2013-07-21 01:57:00,
2013-07-20 21:58:00,85.5,72.0,29.83,SSW,213,9.0,11.0,57,0.00,,,0.00,meteohub,2013-07-21 01:58:00,
2013-07-20 21:59:00,85.5,72.0,29.83,SW,236,4.0,11.0,57,0.00,,,0.00,meteohub,2013-07-21 01:59:00,
2013-07-20 22:00:00,85.5,71.8,29.83,SSW,213,4.0,11.0,57,0.00,,,0.00,meteohub,2013-07-21 02:00:00,
2013-07-20 22:02:00,85.5,71.8,29.83,SSW,213,6.0,14.0,57,0.00,,,0.00,meteohub,2013-07-21 02:02:00,
2013-07-20 22:03:00,85.3,71.6,29.83,SSW,213,4.0,14.0,57,0.00,,,0.00,meteohub,2013-07-21 02:03:00,
2013-07-20 22:05:00,85.3,71.6,29.83,SSW,213,6.0,14.0,57,0.00,,,0.00,meteohub,2013-07-21 02:05:00,
2013-07-20 22:06:00,85.3,72.1,29.83,SSW,213,8.0,14.0,58,0.00,,,0.00,meteohub,2013-07-21 02:06:00,
2013-07-20 22:09:00,85.1,71.4,29.83,SSW,213,6.0,14.0,57,0.00,,,0.00,meteohub,2013-07-21 02:09:00,
2013-07-20 22:10:00,85.1,72.0,29.83,SW,236,9.0,14.0,58,0.00,,,0.00,meteohub,2013-07-21 02:10:00,
2013-07-20 22:11:00,85.1,72.0,29.83,WSW,258,8.0,14.0,58,0.00,,,0.00,meteohub,2013-07-21 02:11:00,
2013-07-20 22:15:00,85.1,72.0,29.83,SSE,168,6.0,13.0,58,0.00,,,0.00,meteohub,2013-07-21 02:15:00,
2013-07-20 22:16:00,85.1,72.0,29.83,SSW,213,4.0,13.0,58,0.00,,,0.00,meteohub,2013-07-21 02:16:00,
2013-07-20 22:17:00,85.1,72.0,29.83,SW,236,7.0,13.0,58,0.00,,,0.00,meteohub,2013-07-21 02:17:00,
2013-07-20 22:21:00,84.9,72.5,29.83,WSW,258,7.0,13.0,59,0.00,,,0.00,meteohub,2013-07-21 02:21:00,
2013-07-20 22:22:00,84.9,72.5,29.83,SSW,213,6.0,13.0,59,0.00,,,0.00,meteohub,2013-07-21 02:22:00,
2013-07-20 22:26:00,84.7,71.6,29.83,SSW,213,5.0,13.0,58,0.00,,,0.00,meteohub,2013-07-21 02:26:00,
2013-07-20 22:27:00,84.7,71.6,29.83,SSW,213,4.0,13.0,58,0.00,,,0.00,meteohub,2013-07-21 02:27:00,
2013-07-20 22:32:00,84.6,72.0,29.83,SW,236,4.0,9.0,59,0.00,,,0.00,meteohub,2013-07-21 02:32:00,
2013-07-20 22:37:00,84.6,71.6,29.83,SSW,213,5.0,9.0,58,0.00,,,0.00,meteohub,2013-07-21 02:37:00,
2013-07-20 22:38:00,84.6,71.6,29.83,SSE,168,6.0,9.0,58,0.00,,,0.00,meteohub,2013-07-21 02:38:00,
2013-07-20 22:39:00,84.6,71.6,29.83,WSW,258,3.0,11.0,58,0.00,,,0.00,meteohub,2013-07-21 02:39:00,
2013-07-20 22:42:00,84.6,71.6,29.83,SSW,213,3.0,11.0,58,0.00,,,0.00,meteohub,2013-07-21 02:42:00,
2013-07-20 22:43:00,84.6,72.1,29.83,WSW,258,8.0,11.0,59,0.00,,,0.00,meteohub,2013-07-21 02:43:00,
2013-07-20 22:45:00,84.4,71.6,29.83,SSW,213,5.0,11.0,58,0.00,,,0.00,meteohub,2013-07-21 02:45:00,
2013-07-20 22:48:00,84.4,72.0,29.83,South,190,5.0,11.0,59,0.00,,,0.00,meteohub,2013-07-21 02:48:00,
2013-07-20 22:49:00,84.2,71.8,29.83,SSW,213,3.0,11.0,59,0.00,,,0.00,meteohub,2013-07-21 02:49:00,
2013-07-20 22:50:00,84.4,71.8,29.83,NNW,348,3.0,9.0,59,0.00,,,0.00,meteohub,2013-07-21 02:50:00,
2013-07-20 22:53:00,84.2,72.7,29.86,WNW,303,2.0,9.0,61,0.00,,,0.00,meteohub,2013-07-21 02:53:00,
2013-07-20 22:54:00,84.2,72.1,29.86,West,280,4.0,9.0,60,0.00,,,0.00,meteohub,2013-07-21 02:54:00,
2013-07-20 22:55:00,84.2,72.1,29.86,West,280,4.0,9.0,60,0.00,,,0.00,meteohub,2013-07-21 02:55:00,
2013-07-20 22:56:00,84.4,71.8,29.86,West,280,3.0,8.0,59,0.00,,,0.00,meteohub,2013-07-21 02:56:00,
2013-07-20 22:59:00,84.4,71.6,29.86,WSW,258,3.0,8.0,58,0.00,,,0.00,meteohub,2013-07-21 02:59:00,
2013-07-20 23:01:00,84.6,71.6,29.86,SW,236,3.0,8.0,58,0.00,,,0.00,meteohub,2013-07-21 03:01:00,
2013-07-20 23:02:00,84.6,71.6,29.86,WSW,258,3.0,8.0,58,0.00,,,0.00,meteohub,2013-07-21 03:02:00,
2013-07-20 23:04:00,84.4,72.5,29.86,SSW,213,4.0,8.0,60,0.00,,,0.00,meteohub,2013-07-21 03:04:00,
2013-07-20 23:05:00,84.4,72.5,29.86,WSW,258,4.0,8.0,60,0.00,,,0.00,meteohub,2013-07-21 03:05:00,
2013-07-20 23:06:00,84.4,72.9,29.86,WSW,258,3.0,6.0,61,0.00,,,0.00,meteohub,2013-07-21 03:06:00,
2013-07-20 23:07:00,84.4,72.9,29.86,SSW,213,3.0,6.0,61,0.00,,,0.00,meteohub,2013-07-21 03:07:00,
2013-07-20 23:10:00,84.2,73.2,29.86,SSW,213,1.0,6.0,62,0.00,,,0.00,meteohub,2013-07-21 03:10:00,
2013-07-20 23:11:00,84.2,73.0,29.86,WSW,258,2.0,6.0,62,0.00,,,0.00,meteohub,2013-07-21 03:11:00,
2013-07-20 23:12:00,84.2,73.0,29.86,NNW,348,1.0,6.0,62,0.00,,,0.00,meteohub,2013-07-21 03:12:00,
2013-07-20 23:15:00,84.0,73.0,29.86,SW,236,3.0,6.0,62,0.00,,,0.00,meteohub,2013-07-21 03:15:00,
2013-07-20 23:17:00,84.0,73.2,29.86,South,190,2.0,6.0,63,0.00,,,0.00,meteohub,2013-07-21 03:17:00,
2013-07-20 23:18:00,84.0,72.9,29.86,SSW,213,5.0,6.0,62,0.00,,,0.00,meteohub,2013-07-21 03:18:00,
2013-07-20 23:20:00,83.8,72.9,29.86,SSW,213,4.0,6.0,62,0.00,,,0.00,meteohub,2013-07-21 03:20:00,
2013-07-20 23:23:00,83.8,71.4,29.83,SSW,213,4.0,6.0,59,0.00,,,0.00,meteohub,2013-07-21 03:23:00,
2013-07-20 23:26:00,83.8,70.5,29.83,WSW,258,5.0,8.0,57,0.00,,,0.00,meteohub,2013-07-21 03:26:00,
2013-07-20 23:28:00,84.0,70.7,29.83,SSW,213,5.0,8.0,57,0.00,,,0.00,meteohub,2013-07-21 03:28:00,
2013-07-20 23:29:00,84.0,71.2,29.83,SW,236,3.0,8.0,58,0.00,,,0.00,meteohub,2013-07-21 03:29:00,
2013-07-20 23:33:00,83.7,72.9,29.83,SW,236,6.0,8.0,62,0.00,,,0.00,meteohub,2013-07-21 03:33:00,
2013-07-20 23:34:00,83.7,72.3,29.83,SW,236,4.0,8.0,61,0.00,,,0.00,meteohub,2013-07-21 03:34:00,
2013-07-20 23:39:00,83.7,71.6,29.86,SSW,213,6.0,8.0,60,0.00,,,0.00,meteohub,2013-07-21 03:39:00,
2013-07-20 23:40:00,83.7,71.6,29.86,SSW,213,6.0,8.0,60,0.00,,,0.00,meteohub,2013-07-21 03:40:00,
2013-07-20 23:45:00,83.5,71.2,29.86,SW,236,3.0,6.0,59,0.00,,,0.00,meteohub,2013-07-21 03:45:00,
2013-07-20 23:46:00,83.7,71.4,29.86,SSW,213,3.0,6.0,59,0.00,,,0.00,meteohub,2013-07-21 03:46:00,
2013-07-20 23:50:00,83.7,71.6,29.86,SW,236,6.0,6.0,59,0.00,,,0.00,meteohub,2013-07-21 03:50:00,
2013-07-20 23:51:00,83.5,71.4,29.86,WSW,258,5.0,6.0,59,0.00,,,0.00,meteohub,2013-07-21 03:51:00,
2013-07-20 23:56:00,83.3,71.4,29.86,SSE,168,3.0,8.0,60,0.00,,,0.00,meteohub,2013-07-21 03:56:00,
2013-07-20 23:58:00,83.1,71.4,29.86,SSW,213,4.0,8.0,60,0.00,,,0.00,meteohub,2013-07-21 03:58:00,